GFSWCAN_prec_precacc24_015.txt.gz
Total_Precipitation_Accumulation
0.06 0.04 0.02 0.00 0.00 0.00 0.00 0.00 0.00 0.00 0.00 0.00 0.00 0.00 0.00 0.00 0.00 0.00 0.00 0.00 0.00 0.00 0.00 0.00 0.00 0.00 0.00 0.00 0.00 0.00 0.00 0.00 0.00 0.00 0.00 0.00 0.00 0.00 0.00 0.00 0.00 0.00 0.00 0.00 0.00 0.00 0.00 0.00 0.00 0.00 0.00 0.00 0.00 0.00
0.14 0.01 0.00 0.00 0.00 0.00 0.00 0.00 0.00 0.00 0.00 0.01 0.00 0.01 0.00 0.00 0.00 0.00 0.01 0.01 0.00 0.00 0.00 0.00 0.00 0.00 0.00 0.00 0.00 0.00 0.00 0.00 0.00 0.00 0.00 0.00 0.00 0.00 0.00 0.00 0.00 0.00 0.00 0.00 0.00 0.00 0.00 0.00 0.00 0.00 0.00 0.00 0.00 0.00
0.30 0.09 0.01 0.00 0.00 0.00 0.00 0.00 0.01 0.01 0.01 0.01 0.01 0.01 0.00 0.00 0.00 0.00 0.01 0.03 0.01 0.00 0.00 0.00 0.00 0.00 0.00 0.00 0.00 0.00 0.00 0.00 0.00 0.00 0.00 0.00 0.00 0.00 0.00 0.00 0.00 0.00 0.00 0.00 0.00 0.00 0.00 0.00 0.00 0.00 0.00 0.00 0.00 0.00
0.34 0.22 0.05 0.00 0.00 0.00 0.00 0.00 0.00 0.01 0.01 0.01 0.02 0.03 0.02 0.00 0.00 0.00 0.01 0.01 0.01 0.00 0.00 0.00 0.00 0.00 0.00 0.00 0.00 0.00 0.00 0.00 0.00 0.00 0.00 0.00 0.00 0.00 0.00 0.00 0.00 0.00 0.00 0.00 0.00 0.00 0.00 0.00 0.00 0.00 0.00 0.00 0.00 0.00
0.33 0.21 0.10 0.01 0.00 0.00 0.00 0.00 0.00 0.01 0.01 0.02 0.03 0.03 0.02 0.01 0.01 0.01 0.01 0.00 0.00 0.02 0.00 0.00 0.00 0.00 0.00 0.00 0.00 0.00 0.00 0.00 0.00 0.00 0.00 0.00 0.00 0.00 0.00 0.00 0.00 0.00 0.00 0.00 0.00 0.00 0.00 0.00 0.00 0.00 0.00 0.00 0.00 0.00
0.28 0.21 0.13 0.02 0.00 0.00 0.01 0.01 0.00 0.01 0.01 0.01 0.02 0.04 0.02 0.02 0.01 0.01 0.01 0.00 0.00 0.00 0.01 0.00 0.00 0.00 0.00 0.00 0.00 0.00 0.00 0.00 0.01 0.00 0.00 0.00 0.00 0.00 0.00 0.00 0.00 0.00 0.00 0.00 0.00 0.00 0.00 0.00 0.00 0.00 0.00 0.00 0.00 0.00
0.15 0.13 0.11 0.05 0.01 0.00 0.01 0.01 0.00 0.00 0.01 0.01 0.02 0.05 0.06 0.03 0.01 0.00 0.00 0.01 0.01 0.00 0.00 0.00 0.00 0.00 0.00 0.00 0.02 0.06 0.06 0.02 0.06 0.02 0.00 0.00 0.00 0.01 0.00 0.00 0.00 0.00 0.00 0.00 0.00 0.00 0.00 0.00 0.00 0.00 0.00 0.00 0.00 0.00
0.08 0.05 0.04 0.03 0.03 0.00 0.00 0.01 0.00 0.01 0.00 0.01 0.00 0.00 0.00 0.00 0.00 0.00 0.00 0.00 0.00 0.00 0.01 0.00 0.00 0.00 0.00 0.01 0.06 0.04 0.06 0.13 0.09 0.02 0.01 0.00 0.00 0.00 0.00 0.00 0.00 0.00 0.00 0.00 0.00 0.00 0.00 0.00 0.00 0.00 0.00 0.00 0.00 0.00
0.05 0.02 0.01 0.02 0.04 0.01 0.00 0.01 0.01 0.01 0.00 0.00 0.00 0.00 0.00 0.00 0.01 0.00 0.00 0.00 0.00 0.03 0.03 0.00 0.00 0.00 0.00 0.00 0.00 0.01 0.04 0.07 0.02 0.01 0.00 0.00 0.00 0.00 0.00 0.00 0.00 0.00 0.00 0.00 0.00 0.00 0.00 0.00 0.00 0.00 0.00 0.01 0.03 0.09
0.03 0.01 0.00 0.00 0.04 0.02 0.00 0.00 0.01 0.01 0.01 0.00 0.00 0.00 0.00 0.00 0.00 0.00 0.00 0.01 0.00 0.00 0.00 0.00 0.00 0.00 0.00 0.00 0.00 0.01 0.00 0.02 0.00 0.00 0.00 0.00 0.00 0.00 0.00 0.00 0.00 0.00 0.00 0.00 0.00 0.00 0.00 0.01 0.03 0.07 0.10 0.10 0.10 0.11
0.04 0.01 0.00 0.00 0.01 0.04 0.01 0.01 0.01 0.03 0.06 0.03 0.02 0.00 0.00 0.01 0.00 0.01 0.00 0.00 0.00 0.00 0.00 0.00 0.00 0.00 0.00 0.00 0.00 0.01 0.01 0.01 0.00 0.00 0.00 0.00 0.00 0.00 0.00 0.00 0.00 0.00 0.00 0.00 0.00 0.00 0.01 0.04 0.11 0.14 0.12 0.08 0.04 0.01
0.04 0.02 0.01 0.00 0.00 0.01 0.02 0.01 0.01 0.00 0.05 0.13 0.09 0.04 0.07 0.15 0.09 0.10 0.07 0.01 0.00 0.00 0.00 0.01 0.00 0.00 0.00 0.00 0.00 0.00 0.01 0.01 0.00 0.00 0.01 0.01 0.00 0.00 0.00 0.00 0.00 0.00 0.00 0.00 0.02 0.07 0.13 0.14 0.13 0.09 0.03 0.00 0.00 0.00
0.06 0.05 0.03 0.02 0.00 0.00 0.00 0.00 0.00 0.02 0.06 0.12 0.17 0.20 0.21 0.41 0.44 0.34 0.13 0.03 0.01 0.00 0.01 0.01 0.00 0.00 0.00 0.00 0.06 0.14 0.20 0.12 0.05 0.03 0.02 0.02 0.01 0.02 0.04 0.04 0.05 0.06 0.08 0.13 0.16 0.15 0.10 0.05 0.01 0.01 0.01 0.01 0.01 0.01
0.00 0.01 0.02 0.03 0.02 0.00 0.00 0.00 0.00 0.01 0.01 0.02 0.11 0.28 0.26 0.29 0.20 0.19 0.08 0.03 0.04 0.03 0.01 0.00 0.00 0.01 0.01 0.05 0.23 0.40 0.45 0.27 0.24 0.11 0.05 0.09 0.14 0.28 0.21 0.12 0.09 0.05 0.02 0.03 0.02 0.00 0.00 0.00 0.00 0.00 0.00 0.00 0.00 0.00
0.00 0.00 0.00 0.00 0.00 0.01 0.00 0.00 0.00 0.00 0.00 0.02 0.02 0.08 0.11 0.06 0.05 0.03 0.02 0.03 0.06 0.08 0.14 0.17 0.20 0.15 0.15 0.30 0.36 0.33 0.30 0.23 0.17 0.18 0.25 0.31 0.28 0.27 0.09 0.01 0.00 0.00 0.01 0.00 0.00 0.00 0.00 0.00 0.00 0.00 0.00 0.00 0.00 0.00
0.00 0.00 0.00 0.00 0.00 0.00 0.00 0.00 0.00 0.00 0.00 0.02 0.04 0.04 0.03 0.01 0.04 0.07 0.09 0.11 0.14 0.18 0.23 0.30 0.31 0.35 0.39 0.33 0.21 0.17 0.18 0.22 0.31 0.17 0.15 0.14 0.06 0.06 0.08 0.05 0.01 0.02 0.01 0.00 0.00 0.00 0.00 0.00 0.00 0.00 0.00 0.00 0.00 0.00
0.00 0.01 0.00 0.00 0.00 0.00 0.00 0.00 0.00 0.00 0.00 0.00 0.00 0.00 0.01 0.01 0.03 0.04 0.06 0.07 0.08 0.10 0.11 0.11 0.14 0.14 0.14 0.17 0.20 0.21 0.24 0.16 0.08 0.06 0.05 0.04 0.02 0.01 0.02 0.01 0.00 0.00 0.00 0.00 0.00 0.00 0.00 0.00 0.00 0.00 0.00 0.00 0.00 0.00
0.02 0.02 0.00 0.00 0.00 0.00 0.00 0.00 0.00 0.00 0.00 0.01 0.01 0.01 0.01 0.01 0.02 0.01 0.02 0.00 0.00 0.01 0.01 0.02 0.02 0.04 0.07 0.08 0.12 0.09 0.08 0.02 0.02 0.02 0.02 0.01 0.00 0.00 0.00 0.00 0.00 0.00 0.00 0.00 0.00 0.00 0.00 0.00 0.00 0.00 0.00 0.00 0.00 0.00
0.01 0.02 0.00 0.01 0.00 0.00 0.00 0.00 0.00 0.00 0.00 0.00 0.01 0.01 0.01 0.02 0.01 0.01 0.01 0.00 0.00 0.00 0.00 0.00 0.00 0.01 0.01 0.01 0.01 0.01 0.00 0.00 0.00 0.00 0.00 0.00 0.00 0.00 0.00 0.00 0.00 0.00 0.00 0.00 0.00 0.00 0.00 0.00 0.00 0.00 0.00 0.00 0.00 0.01
0.00 0.00 0.00 0.03 0.01 0.00 0.00 0.00 0.00 0.00 0.00 0.00 0.00 0.00 0.01 0.01 0.01 0.02 0.01 0.01 0.00 0.00 0.00 0.00 0.00 0.00 0.00 0.00 0.00 0.00 0.00 0.00 0.00 0.00 0.00 0.00 0.00 0.00 0.00 0.00 0.00 0.00 0.00 0.00 0.00 0.00 0.00 0.00 0.00 0.00 0.01 0.01 0.01 0.01
0.02 0.00 0.00 0.01 0.05 0.01 0.00 0.00 0.00 0.00 0.00 0.00 0.00 0.00 0.00 0.01 0.01 0.01 0.00 0.00 0.00 0.00 0.00 0.00 0.00 0.00 0.00 0.00 0.00 0.00 0.00 0.00 0.00 0.00 0.00 0.00 0.00 0.00 0.00 0.00 0.00 0.00 0.00 0.00 0.00 0.00 0.00 0.01 0.01 0.01 0.03 0.01 0.01 0.01
0.01 0.00 0.00 0.01 0.05 0.06 0.02 0.00 0.00 0.00 0.00 0.00 0.00 0.00 0.00 0.00 0.00 0.00 0.00 0.01 0.00 0.00 0.00 0.00 0.01 0.01 0.01 0.01 0.00 0.00 0.00 0.00 0.00 0.00 0.00 0.00 0.01 0.00 0.00 0.00 0.00 0.00 0.00 0.00 0.01 0.00 0.00 0.01 0.02 0.01 0.01 0.01 0.01 0.02
0.00 0.01 0.02 0.02 0.06 0.05 0.04 0.01 0.03 0.01 0.00 0.00 0.01 0.01 0.00 0.00 0.00 0.00 0.01 0.01 0.00 0.00 0.00 0.00 0.02 0.05 0.06 0.08 0.05 0.05 0.04 0.02 0.01 0.00 0.00 0.00 0.00 0.00 0.00 0.00 0.00 0.01 0.00 0.00 0.01 0.02 0.02 0.01 0.00 0.01 0.01 0.02 0.02 0.01
0.01 0.02 0.10 0.12 0.06 0.07 0.05 0.05 0.04 0.04 0.01 0.00 0.01 0.01 0.01 0.00 0.00 0.01 0.00 0.00 0.02 0.01 0.01 0.02 0.03 0.04 0.07 0.06 0.05 0.05 0.06 0.04 0.02 0.00 0.00 0.00 0.00 0.00 0.00 0.00 0.00 0.01 0.01 0.01 0.01 0.01 0.00 0.01 0.02 0.03 0.02 0.01 0.01 0.02
0.07 0.04 0.12 0.14 0.11 0.08 0.04 0.03 0.04 0.03 0.02 0.01 0.01 0.01 0.00 0.01 0.02 0.01 0.01 0.05 0.05 0.06 0.08 0.10 0.10 0.08 0.06 0.07 0.07 0.05 0.03 0.01 0.01 0.01 0.01 0.00 0.00 0.00 0.00 0.00 0.00 0.01 0.00 0.01 0.01 0.02 0.02 0.02 0.01 0.00 0.00 0.02 0.04 0.05
0.20 0.09 0.06 0.06 0.05 0.06 0.03 0.01 0.01 0.01 0.01 0.05 0.06 0.03 0.02 0.04 0.05 0.05 0.08 0.12 0.10 0.11 0.13 0.13 0.12 0.10 0.09 0.07 0.07 0.05 0.02 0.01 0.00 0.00 0.01 0.00 0.01 0.01 0.01 0.01 0.01 0.00 0.00 0.02 0.04 0.03 0.01 0.01 0.01 0.02 0.03 0.03 0.04 0.06
0.14 0.10 0.04 0.03 0.07 0.12 0.18 0.16 0.15 0.14 0.11 0.11 0.08 0.06 0.10 0.15 0.10 0.11 0.14 0.19 0.20 0.19 0.15 0.11 0.07 0.05 0.05 0.04 0.01 0.00 0.00 0.00 0.00 0.00 0.01 0.02 0.02 0.01 0.01 0.02 0.03 0.02 0.01 0.01 0.01 0.02 0.04 0.04 0.03 0.03 0.04 0.03 0.05 0.07
0.07 0.07 0.07 0.10 0.18 0.22 0.20 0.17 0.20 0.21 0.21 0.17 0.12 0.12 0.14 0.10 0.09 0.11 0.15 0.17 0.14 0.11 0.06 0.05 0.03 0.01 0.01 0.01 0.01 0.01 0.00 0.00 0.00 0.01 0.01 0.03 0.02 0.00 0.00 0.00 0.01 0.00 0.00 0.00 0.01 0.01 0.02 0.05 0.05 0.05 0.05 0.07 0.08 0.09
0.07 0.10 0.10 0.11 0.06 0.06 0.08 0.09 0.11 0.12 0.12 0.09 0.06 0.05 0.06 0.05 0.08 0.08 0.08 0.08 0.05 0.03 0.02 0.02 0.02 0.01 0.01 0.01 0.01 0.00 0.00 0.00 0.00 0.00 0.00 0.00 0.00 0.00 0.00 0.00 0.00 0.00 0.00 0.00 0.00 0.00 0.02 0.06 0.07 0.11 0.09 0.09 0.09 0.07
0.01 0.02 0.02 0.01 0.01 0.02 0.02 0.02 0.03 0.05 0.04 0.03 0.02 0.01 0.01 0.03 0.07 0.07 0.05 0.04 0.04 0.05 0.06 0.04 0.03 0.01 0.00 0.00 0.00 0.01 0.02 0.01 0.00 0.00 0.01 0.01 0.01 0.01 0.00 0.00 0.00 0.00 0.01 0.01 0.00 0.00 0.01 0.01 0.03 0.08 0.04 0.05 0.07 0.07
0.00 0.01 0.00 0.01 0.01 0.01 0.01 0.00 0.01 0.03 0.04 0.02 0.01 0.02 0.03 0.04 0.06 0.05 0.04 0.06 0.04 0.02 0.01 0.00 0.00 0.00 0.00 0.00 0.01 0.01 0.01 0.01 0.01 0.00 0.01 0.01 0.01 0.00 0.00 0.00 0.00 0.01 0.01 0.00 0.01 0.02 0.03 0.02 0.04 0.05 0.03 0.04 0.05 0.06
0.00 0.01 0.01 0.04 0.04 0.01 0.00 0.00 0.00 0.00 0.01 0.02 0.03 0.02 0.03 0.02 0.02 0.02 0.02 0.01 0.00 0.00 0.00 0.00 0.00 0.01 0.01 0.01 0.01 0.01 0.02 0.01 0.00 0.00 0.01 0.01 0.00 0.00 0.00 0.00 0.00 0.01 0.01 0.01 0.02 0.04 0.03 0.03 0.04 0.04 0.05 0.04 0.05 0.05
0.00 0.00 0.00 0.00 0.00 0.00 0.00 0.00 0.00 0.00 0.01 0.02 0.04 0.04 0.03 0.03 0.03 0.03 0.03 0.01 0.00 0.00 0.00 0.00 0.00 0.00 0.01 0.00 0.00 0.00 0.00 0.00 0.00 0.00 0.01 0.01 0.00 0.00 0.00 0.00 0.00 0.01 0.00 0.01 0.02 0.03 0.03 0.03 0.03 0.04 0.03 0.03 0.03 0.03

GFSWCAN_prec_precacc24_021.txt.gz
Total_Precipitation_Accumulation
0.22 0.25 0.19 0.23 0.12 0.09 0.18 0.20 0.12 0.10 0.11 0.02 0.01 0.01 0.00 0.00 0.00 0.08 0.02 0.00 0.00 0.00 0.00 0.00 0.00 0.00 0.00 0.00 0.00 0.00 0.00 0.00 0.00 0.00 0.00 0.00 0.00 0.00 0.00 0.00 0.00 0.00 0.00 0.00 0.00 0.00 0.00 0.00 0.00 0.00 0.00 0.00 0.00 0.00
0.43 0.23 0.19 0.20 0.10 0.14 0.19 0.17 0.09 0.06 0.04 0.02 0.01 0.01 0.00 0.00 0.01 0.08 0.05 0.01 0.01 0.00 0.00 0.00 0.00 0.00 0.00 0.00 0.00 0.00 0.00 0.00 0.00 0.00 0.00 0.01 0.00 0.00 0.00 0.00 0.00 0.00 0.00 0.00 0.00 0.00 0.00 0.00 0.00 0.00 0.00 0.00 0.00 0.00
0.57 0.25 0.16 0.15 0.12 0.11 0.10 0.08 0.04 0.02 0.01 0.01 0.01 0.01 0.00 0.00 0.01 0.06 0.04 0.03 0.03 0.01 0.01 0.00 0.00 0.00 0.00 0.00 0.00 0.00 0.00 0.00 0.00 0.00 0.00 0.00 0.00 0.00 0.00 0.00 0.00 0.00 0.00 0.00 0.00 0.00 0.00 0.00 0.00 0.00 0.00 0.00 0.00 0.00
0.48 0.34 0.17 0.10 0.07 0.05 0.04 0.02 0.01 0.01 0.01 0.01 0.03 0.03 0.02 0.00 0.01 0.05 0.02 0.03 0.04 0.03 0.03 0.00 0.00 0.00 0.00 0.00 0.00 0.00 0.00 0.00 0.00 0.00 0.00 0.01 0.01 0.00 0.00 0.00 0.00 0.00 0.00 0.00 0.00 0.00 0.00 0.00 0.00 0.00 0.00 0.00 0.00 0.00
0.39 0.26 0.15 0.05 0.02 0.02 0.01 0.01 0.01 0.01 0.02 0.03 0.04 0.03 0.02 0.01 0.02 0.03 0.01 0.02 0.05 0.08 0.04 0.01 0.00 0.00 0.00 0.00 0.00 0.00 0.00 0.00 0.00 0.00 0.01 0.01 0.00 0.00 0.00 0.00 0.00 0.00 0.00 0.00 0.00 0.00 0.00 0.00 0.00 0.00 0.00 0.00 0.00 0.00
0.29 0.22 0.13 0.03 0.01 0.01 0.02 0.02 0.04 0.08 0.08 0.07 0.05 0.05 0.03 0.03 0.02 0.02 0.05 0.02 0.02 0.02 0.04 0.03 0.01 0.00 0.00 0.00 0.00 0.00 0.00 0.00 0.01 0.00 0.00 0.00 0.00 0.00 0.00 0.00 0.00 0.00 0.00 0.00 0.00 0.00 0.00 0.00 0.00 0.00 0.00 0.00 0.00 0.00
0.15 0.14 0.12 0.06 0.02 0.02 0.06 0.08 0.10 0.10 0.14 0.07 0.08 0.11 0.12 0.07 0.03 0.02 0.03 0.02 0.01 0.01 0.05 0.03 0.03 0.01 0.01 0.00 0.02 0.06 0.06 0.02 0.06 0.02 0.00 0.00 0.00 0.01 0.00 0.00 0.00 0.00 0.00 0.00 0.00 0.00 0.00 0.00 0.00 0.00 0.00 0.00 0.00 0.00
0.08 0.05 0.05 0.04 0.04 0.03 0.06 0.07 0.08 0.10 0.08 0.06 0.06 0.10 0.12 0.10 0.04 0.02 0.00 0.01 0.01 0.01 0.02 0.02 0.01 0.02 0.01 0.03 0.08 0.04 0.06 0.13 0.09 0.02 0.01 0.00 0.00 0.00 0.00 0.00 0.00 0.00 0.00 0.00 0.00 0.00 0.00 0.00 0.00 0.00 0.00 0.00 0.00 0.00
0.05 0.03 0.02 0.02 0.04 0.01 0.01 0.03 0.04 0.03 0.02 0.02 0.02 0.03 0.06 0.06 0.05 0.02 0.00 0.00 0.00 0.05 0.04 0.00 0.01 0.02 0.01 0.01 0.01 0.02 0.05 0.07 0.02 0.01 0.00 0.00 0.00 0.00 0.00 0.00 0.00 0.00 0.00 0.00 0.00 0.00 0.00 0.00 0.00 0.00 0.00 0.01 0.03 0.10
0.03 0.01 0.01 0.01 0.05 0.03 0.00 0.01 0.01 0.01 0.01 0.01 0.01 0.01 0.03 0.03 0.03 0.03 0.01 0.02 0.00 0.00 0.00 0.00 0.00 0.00 0.00 0.01 0.01 0.01 0.00 0.02 0.00 0.00 0.00 0.00 0.00 0.00 0.00 0.00 0.00 0.00 0.00 0.00 0.00 0.00 0.00 0.01 0.03 0.07 0.10 0.11 0.11 0.11
0.05 0.01 0.02 0.01 0.03 0.07 0.01 0.01 0.01 0.03 0.06 0.03 0.03 0.01 0.01 0.04 0.04 0.03 0.01 0.00 0.00 0.00 0.00 0.00 0.00 0.00 0.00 0.00 0.00 0.01 0.01 0.01 0.00 0.00 0.00 0.00 0.00 0.00 0.00 0.00 0.00 0.00 0.00 0.00 0.00 0.00 0.01 0.04 0.11 0.14 0.12 0.08 0.04 0.01
0.05 0.02 0.01 0.00 0.01 0.06 0.03 0.01 0.01 0.00 0.05 0.13 0.10 0.05 0.08 0.17 0.10 0.11 0.07 0.01 0.00 0.00 0.00 0.01 0.00 0.00 0.00 0.00 0.00 0.00 0.01 0.01 0.00 0.00 0.01 0.01 0.00 0.00 0.00 0.00 0.00 0.00 0.00 0.00 0.02 0.07 0.13 0.14 0.13 0.09 0.03 0.00 0.00 0.00
0.09 0.06 0.03 0.02 0.00 0.01 0.02 0.00 0.00 0.02 0.06 0.12 0.17 0.20 0.21 0.41 0.44 0.34 0.13 0.03 0.01 0.00 0.02 0.02 0.00 0.00 0.00 0.00 0.06 0.14 0.20 0.12 0.05 0.04 0.02 0.03 0.02 0.03 0.05 0.05 0.05 0.06 0.08 0.13 0.16 0.15 0.10 0.05 0.01 0.01 0.01 0.01 0.01 0.01
0.02 0.05 0.07 0.05 0.02 0.00 0.02 0.01 0.00 0.01 0.01 0.02 0.11 0.28 0.27 0.30 0.20 0.19 0.08 0.03 0.04 0.04 0.01 0.00 0.00 0.01 0.01 0.05 0.23 0.40 0.46 0.28 0.26 0.12 0.06 0.10 0.15 0.30 0.22 0.12 0.09 0.05 0.02 0.03 0.02 0.00 0.00 0.00 0.00 0.00 0.00 0.00 0.00 0.00
0.00 0.00 0.02 0.05 0.03 0.02 0.01 0.01 0.00 0.01 0.02 0.04 0.02 0.10 0.12 0.07 0.06 0.04 0.02 0.03 0.06 0.08 0.14 0.17 0.20 0.15 0.15 0.30 0.36 0.33 0.31 0.25 0.18 0.18 0.25 0.31 0.29 0.29 0.11 0.01 0.00 0.00 0.01 0.00 0.00 0.00 0.00 0.00 0.00 0.00 0.00 0.00 0.00 0.00
0.00 0.00 0.00 0.01 0.02 0.00 0.00 0.00 0.00 0.01 0.04 0.07 0.08 0.07 0.04 0.02 0.05 0.08 0.09 0.12 0.15 0.18 0.23 0.31 0.32 0.38 0.41 0.35 0.24 0.19 0.20 0.23 0.31 0.17 0.15 0.14 0.09 0.11 0.09 0.05 0.01 0.02 0.01 0.00 0.00 0.00 0.00 0.00 0.00 0.00 0.00 0.00 0.00 0.00
0.00 0.01 0.00 0.00 0.00 0.00 0.00 0.00 0.00 0.02 0.05 0.05 0.09 0.09 0.07 0.07 0.09 0.11 0.12 0.13 0.13 0.14 0.17 0.20 0.21 0.19 0.19 0.21 0.23 0.22 0.26 0.17 0.09 0.07 0.05 0.05 0.03 0.02 0.03 0.02 0.00 0.00 0.00 0.00 0.00 0.00 0.00 0.00 0.00 0.00 0.00 0.00 0.00 0.00
0.02 0.02 0.00 0.00 0.00 0.00 0.00 0.00 0.00 0.00 0.01 0.03 0.03 0.05 0.03 0.05 0.05 0.04 0.02 0.01 0.02 0.03 0.06 0.08 0.07 0.10 0.14 0.13 0.15 0.10 0.08 0.02 0.02 0.02 0.03 0.03 0.01 0.01 0.01 0.01 0.00 0.00 0.00 0.00 0.00 0.00 0.00 0.00 0.00 0.00 0.00 0.00 0.00 0.00
0.01 0.02 0.00 0.01 0.00 0.00 0.00 0.00 0.00 0.00 0.01 0.02 0.02 0.03 0.03 0.03 0.02 0.01 0.01 0.01 0.00 0.00 0.00 0.00 0.01 0.02 0.04 0.02 0.02 0.01 0.00 0.00 0.00 0.01 0.02 0.01 0.01 0.00 0.00 0.00 0.00 0.00 0.00 0.00 0.00 0.00 0.00 0.00 0.00 0.00 0.00 0.00 0.00 0.01
0.00 0.00 0.00 0.03 0.01 0.00 0.00 0.00 0.00 0.00 0.00 0.01 0.01 0.01 0.01 0.01 0.01 0.02 0.01 0.01 0.00 0.00 0.00 0.00 0.01 0.00 0.00 0.00 0.00 0.00 0.00 0.00 0.00 0.00 0.02 0.01 0.01 0.00 0.00 0.00 0.00 0.00 0.00 0.00 0.00 0.00 0.00 0.00 0.00 0.00 0.01 0.01 0.01 0.01
0.02 0.00 0.00 0.01 0.05 0.01 0.00 0.00 0.00 0.00 0.00 0.00 0.00 0.00 0.00 0.01 0.01 0.01 0.01 0.00 0.01 0.00 0.01 0.01 0.01 0.01 0.01 0.00 0.00 0.00 0.00 0.00 0.00 0.00 0.00 0.01 0.01 0.00 0.01 0.01 0.00 0.00 0.00 0.00 0.00 0.00 0.00 0.01 0.01 0.01 0.03 0.01 0.01 0.01
0.01 0.00 0.00 0.01 0.05 0.06 0.02 0.00 0.00 0.00 0.00 0.00 0.01 0.01 0.01 0.01 0.01 0.01 0.01 0.03 0.04 0.04 0.04 0.04 0.02 0.04 0.04 0.03 0.02 0.01 0.02 0.03 0.04 0.05 0.05 0.05 0.06 0.05 0.04 0.02 0.01 0.01 0.00 0.00 0.01 0.00 0.00 0.01 0.02 0.01 0.01 0.01 0.01 0.02
0.00 0.01 0.02 0.02 0.06 0.05 0.04 0.01 0.03 0.01 0.00 0.00 0.02 0.02 0.01 0.00 0.00 0.01 0.02 0.03 0.05 0.04 0.05 0.03 0.03 0.08 0.11 0.16 0.15 0.13 0.11 0.07 0.06 0.05 0.06 0.07 0.07 0.06 0.05 0.03 0.02 0.01 0.00 0.00 0.01 0.02 0.02 0.01 0.00 0.01 0.01 0.02 0.03 0.02
0.01 0.02 0.10 0.12 0.06 0.07 0.05 0.05 0.04 0.04 0.01 0.00 0.01 0.01 0.01 0.01 0.00 0.02 0.02 0.03 0.04 0.03 0.03 0.06 0.06 0.09 0.13 0.14 0.15 0.17 0.19 0.17 0.15 0.13 0.13 0.10 0.08 0.06 0.03 0.01 0.01 0.01 0.01 0.01 0.01 0.01 0.00 0.01 0.02 0.03 0.02 0.01 0.01 0.02
0.07 0.04 0.12 0.14 0.11 0.08 0.04 0.03 0.05 0.03 0.02 0.01 0.02 0.01 0.01 0.01 0.02 0.03 0.02 0.06 0.07 0.08 0.12 0.16 0.15 0.15 0.14 0.16 0.18 0.17 0.14 0.09 0.07 0.06 0.06 0.03 0.03 0.01 0.00 0.00 0.00 0.01 0.00 0.01 0.01 0.02 0.02 0.02 0.01 0.00 0.00 0.02 0.04 0.05
0.20 0.10 0.06 0.06 0.05 0.07 0.04 0.02 0.01 0.02 0.02 0.06 0.07 0.04 0.03 0.05 0.06 0.06 0.09 0.14 0.14 0.14 0.17 0.18 0.19 0.16 0.16 0.14 0.12 0.10 0.07 0.04 0.02 0.02 0.02 0.00 0.01 0.01 0.01 0.01 0.01 0.00 0.00 0.02 0.04 0.03 0.01 0.01 0.01 0.02 0.03 0.04 0.04 0.06
0.15 0.10 0.05 0.04 0.07 0.12 0.19 0.16 0.15 0.15 0.12 0.12 0.09 0.07 0.11 0.15 0.11 0.12 0.15 0.21 0.22 0.23 0.19 0.15 0.11 0.09 0.09 0.07 0.05 0.05 0.03 0.01 0.00 0.01 0.01 0.02 0.02 0.01 0.01 0.02 0.03 0.02 0.01 0.01 0.02 0.02 0.04 0.04 0.03 0.03 0.04 0.04 0.05 0.08
0.08 0.07 0.07 0.10 0.18 0.22 0.21 0.18 0.21 0.22 0.22 0.18 0.13 0.13 0.14 0.10 0.10 0.13 0.16 0.19 0.16 0.13 0.08 0.06 0.04 0.03 0.02 0.03 0.03 0.02 0.01 0.00 0.00 0.01 0.01 0.03 0.02 0.00 0.00 0.00 0.01 0.00 0.00 0.00 0.01 0.01 0.03 0.05 0.06 0.06 0.06 0.07 0.08 0.09
0.08 0.10 0.11 0.11 0.07 0.07 0.08 0.10 0.12 0.13 0.12 0.10 0.07 0.06 0.07 0.06 0.09 0.10 0.10 0.10 0.07 0.05 0.04 0.03 0.04 0.02 0.01 0.01 0.01 0.00 0.00 0.00 0.00 0.00 0.00 0.00 0.00 0.00 0.00 0.00 0.00 0.00 0.00 0.01 0.00 0.00 0.03 0.07 0.07 0.11 0.09 0.09 0.09 0.08
0.02 0.02 0.02 0.01 0.01 0.03 0.03 0.03 0.05 0.06 0.04 0.04 0.02 0.02 0.02 0.05 0.09 0.09 0.07 0.06 0.05 0.07 0.07 0.06 0.04 0.01 0.00 0.00 0.00 0.01 0.02 0.01 0.00 0.00 0.01 0.01 0.02 0.01 0.01 0.01 0.00 0.00 0.01 0.01 0.01 0.00 0.01 0.01 0.03 0.08 0.04 0.05 0.08 0.08
0.01 0.01 0.01 0.01 0.02 0.02 0.02 0.01 0.03 0.06 0.05 0.03 0.03 0.03 0.05 0.06 0.07 0.06 0.05 0.07 0.05 0.03 0.02 0.01 0.00 0.00 0.00 0.00 0.01 0.01 0.01 0.01 0.01 0.01 0.01 0.01 0.01 0.01 0.01 0.01 0.01 0.01 0.01 0.01 0.01 0.02 0.03 0.02 0.04 0.05 0.03 0.04 0.05 0.06
0.00 0.01 0.01 0.04 0.05 0.02 0.00 0.00 0.01 0.02 0.03 0.04 0.04 0.03 0.04 0.03 0.03 0.04 0.03 0.02 0.01 0.00 0.00 0.00 0.00 0.01 0.01 0.01 0.01 0.01 0.02 0.01 0.00 0.01 0.01 0.02 0.01 0.01 0.00 0.00 0.01 0.01 0.01 0.01 0.02 0.04 0.03 0.03 0.04 0.04 0.05 0.04 0.05 0.05
0.01 0.00 0.00 0.01 0.01 0.01 0.01 0.00 0.00 0.01 0.02 0.03 0.05 0.04 0.05 0.04 0.04 0.04 0.04 0.02 0.01 0.00 0.00 0.00 0.00 0.00 0.01 0.00 0.00 0.00 0.00 0.00 0.00 0.00 0.01 0.01 0.01 0.00 0.00 0.01 0.01 0.01 0.01 0.01 0.02 0.04 0.03 0.03 0.03 0.04 0.03 0.03 0.03 0.03

GFSWCAN_prec_precacc24_024.txt.gz
Total_Precipitation_Accumulation
0.23 0.26 0.19 0.23 0.12 0.09 0.19 0.21 0.13 0.13 0.15 0.06 0.06 0.06 0.04 0.00 0.00 0.20 0.28 0.06 0.16 0.06 0.00 0.00 0.00 0.00 0.00 0.00 0.01 0.00 0.00 0.00 0.00 0.00 0.00 0.00 0.00 0.00 0.00 0.00 0.00 0.00 0.00 0.00 0.00 0.00 0.00 0.00 0.00 0.00 0.00 0.00 0.00 0.00
0.43 0.24 0.19 0.20 0.10 0.14 0.20 0.20 0.13 0.11 0.11 0.06 0.05 0.03 0.02 0.00 0.01 0.22 0.40 0.11 0.08 0.07 0.00 0.00 0.00 0.00 0.00 0.00 0.00 0.00 0.00 0.00 0.00 0.00 0.00 0.02 0.00 0.00 0.00 0.00 0.00 0.00 0.00 0.00 0.00 0.00 0.00 0.00 0.00 0.00 0.00 0.00 0.00 0.00
0.57 0.25 0.16 0.16 0.15 0.19 0.21 0.16 0.09 0.09 0.10 0.06 0.04 0.02 0.01 0.00 0.02 0.20 0.35 0.31 0.20 0.04 0.02 0.00 0.00 0.00 0.00 0.00 0.00 0.00 0.00 0.00 0.00 0.00 0.00 0.00 0.01 0.00 0.00 0.00 0.00 0.00 0.00 0.00 0.00 0.00 0.00 0.00 0.00 0.00 0.00 0.00 0.00 0.00
0.50 0.36 0.22 0.22 0.20 0.17 0.14 0.11 0.08 0.10 0.07 0.08 0.04 0.03 0.02 0.01 0.04 0.21 0.16 0.12 0.11 0.03 0.06 0.02 0.00 0.00 0.00 0.00 0.00 0.00 0.00 0.00 0.00 0.00 0.00 0.01 0.01 0.00 0.00 0.00 0.00 0.00 0.00 0.00 0.00 0.00 0.00 0.00 0.00 0.00 0.00 0.00 0.00 0.00
0.47 0.38 0.30 0.18 0.14 0.14 0.11 0.11 0.10 0.06 0.08 0.08 0.05 0.03 0.03 0.02 0.05 0.14 0.09 0.05 0.07 0.09 0.06 0.01 0.00 0.00 0.00 0.00 0.00 0.00 0.00 0.00 0.00 0.00 0.01 0.01 0.00 0.00 0.00 0.00 0.00 0.00 0.00 0.00 0.00 0.00 0.00 0.00 0.00 0.00 0.00 0.00 0.00 0.00
0.43 0.36 0.26 0.16 0.12 0.09 0.08 0.09 0.08 0.10 0.11 0.09 0.06 0.06 0.04 0.04 0.06 0.09 0.14 0.03 0.04 0.02 0.05 0.03 0.01 0.00 0.00 0.00 0.00 0.00 0.00 0.00 0.01 0.00 0.00 0.00 0.00 0.00 0.00 0.00 0.00 0.00 0.00 0.00 0.00 0.00 0.00 0.00 0.00 0.00 0.00 0.00 0.00 0.00
0.37 0.33 0.24 0.12 0.05 0.05 0.08 0.09 0.11 0.12 0.15 0.09 0.08 0.11 0.13 0.10 0.07 0.10 0.08 0.04 0.03 0.02 0.08 0.04 0.03 0.01 0.01 0.00 0.02 0.06 0.06 0.02 0.06 0.02 0.00 0.00 0.00 0.01 0.00 0.00 0.00 0.00 0.00 0.00 0.00 0.00 0.00 0.00 0.00 0.00 0.00 0.00 0.00 0.00
0.16 0.16 0.16 0.13 0.09 0.09 0.10 0.08 0.09 0.10 0.08 0.06 0.06 0.10 0.13 0.11 0.07 0.08 0.01 0.01 0.01 0.01 0.08 0.08 0.02 0.02 0.01 0.03 0.08 0.04 0.06 0.13 0.09 0.02 0.01 0.00 0.00 0.00 0.00 0.00 0.00 0.00 0.00 0.00 0.00 0.00 0.00 0.00 0.00 0.00 0.00 0.00 0.00 0.00
0.08 0.06 0.05 0.08 0.12 0.08 0.07 0.06 0.08 0.05 0.03 0.05 0.04 0.03 0.09 0.12 0.15 0.07 0.01 0.00 0.03 0.09 0.11 0.04 0.02 0.02 0.01 0.01 0.01 0.02 0.05 0.07 0.02 0.01 0.00 0.00 0.00 0.00 0.00 0.00 0.00 0.00 0.00 0.00 0.00 0.00 0.00 0.00 0.00 0.00 0.00 0.01 0.03 0.10
0.05 0.02 0.02 0.02 0.08 0.07 0.06 0.07 0.07 0.05 0.06 0.05 0.03 0.05 0.13 0.09 0.07 0.04 0.02 0.03 0.05 0.10 0.02 0.00 0.01 0.01 0.02 0.03 0.03 0.03 0.01 0.03 0.00 0.00 0.00 0.00 0.00 0.00 0.00 0.00 0.00 0.00 0.00 0.00 0.00 0.00 0.00 0.01 0.03 0.07 0.10 0.11 0.11 0.11
0.06 0.03 0.02 0.01 0.03 0.07 0.03 0.03 0.05 0.06 0.08 0.06 0.05 0.03 0.04 0.06 0.09 0.11 0.06 0.05 0.03 0.06 0.00 0.00 0.00 0.00 0.01 0.03 0.04 0.03 0.01 0.01 0.00 0.00 0.00 0.00 0.00 0.00 0.00 0.00 0.00 0.00 0.00 0.00 0.00 0.00 0.01 0.04 0.11 0.14 0.12 0.08 0.04 0.01
0.06 0.02 0.01 0.01 0.01 0.06 0.04 0.02 0.02 0.01 0.06 0.15 0.10 0.06 0.11 0.22 0.23 0.21 0.13 0.05 0.01 0.01 0.00 0.01 0.00 0.00 0.00 0.00 0.00 0.01 0.01 0.01 0.00 0.00 0.01 0.02 0.00 0.00 0.00 0.01 0.00 0.00 0.00 0.00 0.02 0.07 0.13 0.14 0.13 0.09 0.03 0.00 0.00 0.00
0.09 0.06 0.04 0.04 0.01 0.03 0.03 0.01 0.00 0.02 0.06 0.12 0.20 0.25 0.28 0.45 0.51 0.40 0.15 0.04 0.01 0.00 0.02 0.02 0.00 0.00 0.00 0.00 0.06 0.14 0.20 0.12 0.05 0.04 0.02 0.03 0.02 0.03 0.05 0.05 0.05 0.06 0.08 0.13 0.16 0.15 0.10 0.05 0.01 0.01 0.01 0.01 0.01 0.01
0.02 0.05 0.07 0.05 0.03 0.03 0.03 0.01 0.00 0.01 0.01 0.03 0.14 0.32 0.33 0.34 0.21 0.20 0.08 0.03 0.04 0.04 0.02 0.00 0.00 0.01 0.01 0.05 0.24 0.40 0.46 0.28 0.26 0.12 0.06 0.10 0.15 0.30 0.22 0.12 0.09 0.05 0.02 0.03 0.02 0.00 0.00 0.00 0.00 0.00 0.00 0.00 0.00 0.00
0.00 0.00 0.02 0.05 0.04 0.03 0.02 0.02 0.00 0.01 0.03 0.05 0.06 0.15 0.14 0.08 0.06 0.04 0.03 0.03 0.06 0.08 0.14 0.18 0.20 0.16 0.15 0.31 0.36 0.33 0.31 0.25 0.19 0.19 0.25 0.32 0.29 0.29 0.11 0.01 0.00 0.00 0.01 0.00 0.00 0.00 0.00 0.00 0.00 0.00 0.00 0.00 0.00 0.00
0.00 0.00 0.00 0.01 0.02 0.00 0.00 0.02 0.02 0.04 0.12 0.12 0.11 0.10 0.06 0.03 0.06 0.08 0.10 0.12 0.15 0.18 0.23 0.31 0.32 0.38 0.41 0.35 0.24 0.19 0.20 0.24 0.32 0.17 0.15 0.15 0.10 0.12 0.09 0.05 0.01 0.02 0.01 0.00 0.00 0.00 0.00 0.00 0.00 0.00 0.00 0.00 0.00 0.00
0.00 0.01 0.00 0.00 0.00 0.00 0.00 0.00 0.02 0.03 0.07 0.07 0.14 0.14 0.08 0.07 0.11 0.12 0.13 0.14 0.14 0.14 0.17 0.20 0.21 0.19 0.19 0.21 0.24 0.23 0.27 0.18 0.10 0.09 0.07 0.07 0.06 0.04 0.03 0.02 0.00 0.00 0.00 0.00 0.00 0.00 0.00 0.00 0.00 0.00 0.00 0.00 0.00 0.00
0.02 0.02 0.00 0.00 0.00 0.00 0.00 0.00 0.02 0.00 0.02 0.06 0.08 0.12 0.07 0.09 0.08 0.05 0.03 0.01 0.02 0.04 0.08 0.10 0.09 0.15 0.20 0.20 0.22 0.16 0.13 0.07 0.05 0.03 0.03 0.04 0.03 0.02 0.01 0.01 0.00 0.00 0.00 0.00 0.00 0.00 0.00 0.00 0.00 0.00 0.00 0.00 0.00 0.00
0.01 0.02 0.00 0.01 0.00 0.00 0.00 0.00 0.00 0.02 0.04 0.04 0.05 0.04 0.03 0.04 0.02 0.02 0.01 0.01 0.00 0.01 0.02 0.03 0.07 0.09 0.12 0.10 0.09 0.06 0.03 0.01 0.01 0.01 0.02 0.01 0.02 0.01 0.01 0.00 0.00 0.00 0.00 0.00 0.00 0.00 0.00 0.00 0.00 0.00 0.00 0.00 0.00 0.01
0.00 0.00 0.00 0.03 0.01 0.00 0.00 0.00 0.00 0.01 0.02 0.02 0.02 0.01 0.01 0.02 0.01 0.02 0.02 0.01 0.00 0.00 0.00 0.02 0.05 0.05 0.03 0.01 0.02 0.02 0.01 0.00 0.00 0.00 0.02 0.01 0.01 0.01 0.00 0.00 0.00 0.00 0.00 0.00 0.00 0.00 0.00 0.00 0.00 0.00 0.01 0.01 0.01 0.01
0.02 0.00 0.00 0.01 0.05 0.01 0.00 0.00 0.00 0.00 0.00 0.00 0.00 0.00 0.00 0.01 0.01 0.01 0.01 0.00 0.01 0.01 0.04 0.05 0.05 0.04 0.03 0.01 0.01 0.01 0.03 0.04 0.03 0.02 0.02 0.03 0.04 0.02 0.02 0.02 0.02 0.02 0.01 0.00 0.00 0.00 0.00 0.01 0.01 0.01 0.03 0.01 0.01 0.01
0.01 0.00 0.00 0.01 0.05 0.06 0.02 0.00 0.00 0.00 0.00 0.01 0.01 0.01 0.01 0.02 0.02 0.01 0.01 0.03 0.05 0.06 0.08 0.06 0.03 0.05 0.04 0.03 0.03 0.03 0.04 0.06 0.09 0.13 0.16 0.11 0.13 0.10 0.09 0.08 0.05 0.04 0.03 0.02 0.01 0.00 0.00 0.01 0.02 0.01 0.01 0.01 0.01 0.02
0.00 0.01 0.02 0.02 0.06 0.05 0.04 0.01 0.03 0.01 0.00 0.01 0.02 0.02 0.01 0.01 0.00 0.01 0.03 0.04 0.06 0.06 0.07 0.04 0.04 0.08 0.11 0.17 0.16 0.14 0.12 0.09 0.09 0.11 0.12 0.12 0.11 0.11 0.10 0.09 0.08 0.07 0.04 0.01 0.01 0.02 0.02 0.01 0.00 0.01 0.01 0.03 0.03 0.02
0.01 0.02 0.10 0.12 0.06 0.07 0.05 0.05 0.04 0.04 0.02 0.01 0.02 0.02 0.02 0.01 0.01 0.03 0.03 0.04 0.06 0.03 0.04 0.07 0.09 0.11 0.13 0.14 0.15 0.17 0.22 0.19 0.19 0.19 0.19 0.15 0.12 0.11 0.08 0.05 0.03 0.02 0.01 0.01 0.01 0.01 0.00 0.01 0.02 0.03 0.02 0.02 0.01 0.02
0.07 0.04 0.12 0.14 0.11 0.08 0.04 0.03 0.05 0.04 0.02 0.01 0.02 0.02 0.01 0.02 0.03 0.03 0.03 0.08 0.08 0.09 0.13 0.17 0.16 0.15 0.15 0.17 0.19 0.18 0.15 0.11 0.09 0.08 0.09 0.05 0.05 0.03 0.01 0.00 0.00 0.01 0.00 0.01 0.01 0.02 0.02 0.02 0.01 0.01 0.01 0.02 0.04 0.05
0.20 0.10 0.06 0.06 0.06 0.07 0.04 0.02 0.02 0.02 0.02 0.06 0.07 0.04 0.04 0.06 0.06 0.07 0.10 0.16 0.15 0.15 0.18 0.20 0.20 0.17 0.16 0.14 0.13 0.11 0.07 0.05 0.03 0.02 0.02 0.00 0.01 0.01 0.01 0.01 0.01 0.01 0.00 0.02 0.04 0.03 0.01 0.01 0.01 0.02 0.03 0.04 0.04 0.06
0.15 0.11 0.05 0.04 0.07 0.12 0.19 0.17 0.16 0.16 0.12 0.12 0.09 0.07 0.12 0.16 0.12 0.14 0.16 0.22 0.24 0.24 0.20 0.16 0.11 0.09 0.09 0.08 0.06 0.05 0.03 0.01 0.01 0.01 0.01 0.02 0.02 0.01 0.01 0.02 0.03 0.02 0.01 0.01 0.02 0.03 0.04 0.04 0.03 0.03 0.04 0.04 0.06 0.08
0.08 0.07 0.08 0.11 0.18 0.22 0.21 0.18 0.21 0.23 0.23 0.18 0.13 0.14 0.15 0.11 0.12 0.14 0.18 0.21 0.17 0.14 0.09 0.06 0.04 0.03 0.03 0.03 0.04 0.02 0.01 0.00 0.00 0.01 0.01 0.03 0.02 0.00 0.00 0.00 0.01 0.00 0.00 0.01 0.01 0.01 0.03 0.06 0.06 0.06 0.06 0.07 0.08 0.10
0.08 0.10 0.11 0.11 0.07 0.07 0.09 0.11 0.13 0.14 0.13 0.10 0.08 0.07 0.07 0.07 0.11 0.12 0.12 0.11 0.09 0.06 0.05 0.04 0.04 0.03 0.02 0.01 0.01 0.00 0.00 0.00 0.00 0.00 0.00 0.00 0.00 0.01 0.00 0.00 0.00 0.00 0.00 0.01 0.00 0.00 0.03 0.07 0.08 0.11 0.10 0.10 0.10 0.08
0.02 0.02 0.02 0.01 0.01 0.04 0.04 0.04 0.07 0.07 0.04 0.04 0.03 0.02 0.03 0.06 0.10 0.11 0.09 0.08 0.07 0.08 0.08 0.06 0.05 0.02 0.01 0.01 0.01 0.01 0.03 0.01 0.00 0.00 0.01 0.01 0.02 0.01 0.01 0.01 0.01 0.01 0.01 0.01 0.01 0.00 0.01 0.01 0.04 0.08 0.04 0.06 0.08 0.08
0.01 0.01 0.01 0.01 0.03 0.03 0.03 0.01 0.04 0.06 0.06 0.04 0.03 0.04 0.05 0.07 0.09 0.07 0.06 0.09 0.06 0.04 0.03 0.01 0.01 0.00 0.00 0.00 0.01 0.01 0.01 0.01 0.01 0.01 0.01 0.01 0.01 0.01 0.01 0.01 0.01 0.02 0.02 0.01 0.01 0.02 0.03 0.02 0.04 0.05 0.03 0.04 0.05 0.06
0.00 0.01 0.01 0.04 0.06 0.02 0.01 0.01 0.02 0.05 0.04 0.05 0.05 0.04 0.05 0.05 0.04 0.05 0.04 0.03 0.02 0.01 0.00 0.01 0.00 0.01 0.01 0.01 0.01 0.01 0.02 0.01 0.00 0.01 0.01 0.02 0.01 0.01 0.01 0.01 0.01 0.02 0.02 0.01 0.02 0.04 0.04 0.03 0.04 0.04 0.05 0.05 0.05 0.05
0.01 0.00 0.01 0.01 0.01 0.02 0.01 0.00 0.00 0.01 0.03 0.04 0.06 0.05 0.06 0.05 0.05 0.06 0.05 0.02 0.01 0.01 0.00 0.00 0.00 0.01 0.01 0.00 0.00 0.00 0.00 0.00 0.00 0.01 0.01 0.01 0.01 0.01 0.01 0.01 0.01 0.01 0.01 0.01 0.02 0.04 0.03 0.03 0.03 0.04 0.03 0.03 0.03 0.03

GFSWCAN_prec_precacc24_027.txt.gz
Total_Precipitation_Accumulation
0.22 0.26 0.20 0.23 0.12 0.10 0.22 0.26 0.16 0.17 0.18 0.08 0.07 0.06 0.04 0.02 0.02 0.22 0.30 0.11 0.48 0.16 0.01 0.00 0.00 0.01 0.00 0.00 0.01 0.01 0.02 0.01 0.00 0.01 0.01 0.00 0.00 0.00 0.00 0.00 0.00 0.00 0.00 0.00 0.00 0.00 0.00 0.00 0.00 0.00 0.00 0.00 0.00 0.00
0.33 0.24 0.19 0.20 0.10 0.15 0.22 0.22 0.14 0.12 0.12 0.07 0.05 0.03 0.02 0.01 0.03 0.24 0.43 0.13 0.31 0.40 0.06 0.01 0.00 0.00 0.00 0.00 0.00 0.00 0.00 0.00 0.00 0.00 0.01 0.02 0.00 0.00 0.00 0.00 0.00 0.00 0.00 0.00 0.00 0.00 0.00 0.00 0.00 0.00 0.00 0.00 0.00 0.00
0.28 0.16 0.16 0.16 0.15 0.19 0.21 0.16 0.09 0.09 0.10 0.07 0.05 0.02 0.01 0.02 0.04 0.23 0.41 0.37 0.50 0.81 0.19 0.05 0.01 0.00 0.00 0.00 0.00 0.00 0.00 0.00 0.00 0.00 0.00 0.00 0.01 0.00 0.00 0.00 0.00 0.00 0.00 0.00 0.00 0.00 0.00 0.00 0.00 0.00 0.00 0.00 0.00 0.00
0.24 0.16 0.16 0.22 0.20 0.17 0.14 0.11 0.08 0.10 0.08 0.08 0.04 0.03 0.03 0.01 0.04 0.26 0.35 0.71 0.92 0.68 0.47 0.09 0.01 0.00 0.00 0.00 0.00 0.00 0.00 0.00 0.00 0.00 0.00 0.01 0.01 0.00 0.00 0.00 0.00 0.00 0.00 0.00 0.00 0.00 0.00 0.00 0.00 0.00 0.00 0.00 0.00 0.00
0.30 0.22 0.21 0.18 0.15 0.14 0.12 0.11 0.10 0.07 0.09 0.08 0.04 0.04 0.03 0.03 0.07 0.33 0.35 0.81 1.01 0.70 0.41 0.08 0.01 0.00 0.00 0.00 0.00 0.00 0.00 0.00 0.00 0.00 0.01 0.01 0.00 0.00 0.00 0.00 0.00 0.00 0.00 0.00 0.00 0.00 0.00 0.00 0.00 0.00 0.00 0.00 0.00 0.00
0.39 0.30 0.22 0.18 0.16 0.12 0.09 0.11 0.10 0.13 0.13 0.10 0.06 0.06 0.04 0.06 0.14 0.55 0.59 0.52 0.54 0.42 0.27 0.09 0.02 0.00 0.00 0.00 0.00 0.00 0.01 0.00 0.00 0.00 0.00 0.00 0.00 0.00 0.00 0.00 0.00 0.00 0.00 0.00 0.00 0.00 0.00 0.00 0.00 0.00 0.00 0.00 0.00 0.00
0.51 0.42 0.28 0.15 0.11 0.08 0.11 0.13 0.14 0.14 0.17 0.10 0.08 0.11 0.15 0.17 0.28 0.76 0.51 0.28 0.24 0.22 0.22 0.07 0.05 0.03 0.01 0.00 0.02 0.03 0.03 0.01 0.04 0.01 0.00 0.00 0.00 0.00 0.00 0.00 0.00 0.00 0.00 0.00 0.00 0.00 0.00 0.00 0.00 0.00 0.00 0.00 0.00 0.00
0.42 0.32 0.25 0.17 0.12 0.13 0.13 0.12 0.12 0.14 0.13 0.09 0.07 0.12 0.18 0.24 0.39 0.66 0.12 0.06 0.07 0.05 0.11 0.10 0.02 0.03 0.02 0.04 0.06 0.01 0.02 0.09 0.07 0.01 0.00 0.00 0.00 0.00 0.00 0.00 0.00 0.00 0.00 0.00 0.00 0.00 0.00 0.00 0.00 0.00 0.00 0.00 0.00 0.00
0.24 0.17 0.12 0.12 0.15 0.11 0.11 0.10 0.11 0.09 0.06 0.07 0.05 0.09 0.20 0.38 0.51 0.32 0.03 0.01 0.04 0.07 0.11 0.06 0.03 0.03 0.01 0.01 0.01 0.01 0.03 0.07 0.02 0.01 0.00 0.00 0.00 0.00 0.00 0.00 0.00 0.00 0.00 0.00 0.00 0.00 0.00 0.00 0.00 0.00 0.00 0.01 0.03 0.10
0.10 0.07 0.07 0.09 0.14 0.12 0.09 0.09 0.09 0.06 0.06 0.06 0.07 0.17 0.24 0.22 0.15 0.04 0.02 0.03 0.05 0.11 0.04 0.02 0.03 0.01 0.02 0.03 0.03 0.03 0.01 0.03 0.00 0.01 0.01 0.00 0.00 0.00 0.00 0.00 0.00 0.00 0.00 0.00 0.00 0.00 0.00 0.01 0.03 0.07 0.10 0.11 0.11 0.11
0.12 0.05 0.05 0.05 0.08 0.13 0.10 0.10 0.10 0.09 0.06 0.08 0.08 0.09 0.08 0.06 0.10 0.10 0.06 0.05 0.03 0.09 0.03 0.00 0.01 0.01 0.01 0.04 0.06 0.05 0.04 0.02 0.01 0.01 0.01 0.00 0.00 0.00 0.00 0.00 0.00 0.00 0.00 0.00 0.00 0.00 0.01 0.04 0.11 0.14 0.12 0.08 0.04 0.01
0.11 0.06 0.04 0.03 0.05 0.10 0.08 0.05 0.03 0.03 0.07 0.06 0.03 0.04 0.09 0.12 0.20 0.16 0.08 0.04 0.01 0.02 0.01 0.01 0.00 0.00 0.00 0.01 0.02 0.03 0.03 0.01 0.01 0.01 0.01 0.01 0.00 0.00 0.00 0.01 0.00 0.00 0.00 0.00 0.02 0.07 0.13 0.14 0.13 0.09 0.03 0.00 0.00 0.00
0.13 0.11 0.09 0.07 0.03 0.06 0.08 0.04 0.04 0.03 0.04 0.03 0.06 0.13 0.20 0.20 0.28 0.16 0.04 0.02 0.01 0.00 0.01 0.02 0.01 0.00 0.00 0.00 0.06 0.12 0.16 0.08 0.03 0.03 0.02 0.03 0.02 0.03 0.05 0.05 0.05 0.06 0.08 0.13 0.16 0.15 0.10 0.05 0.01 0.01 0.01 0.01 0.01 0.01
0.03 0.06 0.09 0.08 0.09 0.12 0.08 0.02 0.00 0.01 0.01 0.02 0.09 0.17 0.21 0.19 0.10 0.09 0.03 0.02 0.02 0.03 0.01 0.00 0.00 0.01 0.01 0.04 0.17 0.29 0.34 0.22 0.21 0.10 0.05 0.09 0.14 0.26 0.21 0.12 0.09 0.05 0.02 0.03 0.02 0.00 0.00 0.00 0.00 0.00 0.00 0.00 0.00 0.00
0.00 0.00 0.02 0.05 0.07 0.06 0.04 0.02 0.00 0.01 0.03 0.06 0.07 0.14 0.12 0.07 0.03 0.03 0.02 0.02 0.05 0.06 0.09 0.12 0.14 0.10 0.10 0.22 0.23 0.23 0.21 0.17 0.13 0.11 0.16 0.25 0.27 0.27 0.10 0.01 0.00 0.00 0.01 0.00 0.00 0.00 0.00 0.00 0.00 0.00 0.00 0.00 0.00 0.00
0.00 0.00 0.00 0.01 0.03 0.02 0.02 0.03 0.04 0.08 0.18 0.19 0.19 0.18 0.13 0.09 0.10 0.06 0.05 0.06 0.07 0.07 0.10 0.18 0.20 0.26 0.31 0.28 0.17 0.12 0.13 0.15 0.18 0.09 0.13 0.14 0.09 0.12 0.09 0.05 0.01 0.02 0.01 0.00 0.00 0.00 0.00 0.00 0.00 0.00 0.00 0.00 0.00 0.00
0.00 0.00 0.00 0.00 0.00 0.00 0.00 0.03 0.11 0.18 0.21 0.17 0.31 0.31 0.25 0.20 0.23 0.22 0.18 0.16 0.13 0.12 0.15 0.17 0.18 0.14 0.16 0.17 0.18 0.18 0.23 0.14 0.09 0.10 0.09 0.09 0.09 0.06 0.04 0.04 0.01 0.00 0.00 0.00 0.00 0.00 0.00 0.00 0.00 0.00 0.00 0.00 0.00 0.00
0.01 0.01 0.00 0.00 0.00 0.00 0.00 0.00 0.02 0.02 0.07 0.15 0.18 0.27 0.17 0.19 0.16 0.12 0.09 0.07 0.06 0.06 0.09 0.12 0.11 0.17 0.22 0.21 0.23 0.19 0.16 0.11 0.09 0.07 0.08 0.09 0.09 0.03 0.02 0.02 0.00 0.00 0.00 0.00 0.00 0.00 0.00 0.00 0.00 0.00 0.00 0.00 0.00 0.00
0.01 0.01 0.00 0.00 0.00 0.00 0.00 0.00 0.00 0.03 0.10 0.10 0.11 0.08 0.06 0.07 0.03 0.03 0.01 0.01 0.00 0.01 0.02 0.05 0.10 0.14 0.19 0.17 0.19 0.15 0.11 0.06 0.02 0.02 0.04 0.05 0.06 0.03 0.02 0.00 0.00 0.01 0.00 0.00 0.00 0.00 0.00 0.00 0.00 0.00 0.00 0.00 0.00 0.00
0.00 0.00 0.00 0.00 0.00 0.00 0.00 0.00 0.00 0.01 0.04 0.05 0.04 0.02 0.01 0.02 0.01 0.02 0.01 0.01 0.00 0.00 0.01 0.03 0.09 0.11 0.09 0.09 0.09 0.08 0.05 0.03 0.01 0.01 0.03 0.04 0.05 0.03 0.02 0.01 0.01 0.00 0.00 0.00 0.00 0.00 0.00 0.00 0.00 0.00 0.00 0.00 0.00 0.00
0.00 0.00 0.00 0.00 0.00 0.00 0.00 0.00 0.00 0.00 0.00 0.00 0.00 0.00 0.00 0.01 0.01 0.01 0.01 0.00 0.01 0.02 0.07 0.10 0.11 0.09 0.05 0.04 0.03 0.04 0.06 0.08 0.08 0.06 0.06 0.08 0.07 0.05 0.06 0.07 0.06 0.05 0.03 0.03 0.04 0.03 0.01 0.00 0.00 0.00 0.00 0.00 0.00 0.01
0.00 0.00 0.00 0.00 0.00 0.00 0.01 0.00 0.00 0.00 0.00 0.01 0.01 0.01 0.02 0.02 0.02 0.02 0.02 0.03 0.06 0.10 0.12 0.08 0.05 0.05 0.04 0.04 0.03 0.04 0.06 0.08 0.13 0.19 0.24 0.18 0.19 0.16 0.16 0.16 0.11 0.09 0.07 0.07 0.06 0.05 0.02 0.01 0.00 0.00 0.01 0.01 0.01 0.02
0.00 0.00 0.00 0.00 0.00 0.00 0.00 0.00 0.03 0.01 0.00 0.01 0.02 0.02 0.02 0.01 0.01 0.02 0.04 0.05 0.08 0.08 0.10 0.07 0.04 0.08 0.12 0.17 0.16 0.14 0.13 0.09 0.11 0.14 0.17 0.18 0.18 0.18 0.16 0.15 0.14 0.12 0.10 0.07 0.03 0.01 0.00 0.00 0.00 0.00 0.01 0.03 0.03 0.01
0.00 0.00 0.00 0.00 0.01 0.01 0.01 0.03 0.03 0.04 0.02 0.01 0.02 0.02 0.02 0.01 0.01 0.03 0.03 0.06 0.08 0.04 0.05 0.08 0.13 0.13 0.13 0.14 0.16 0.18 0.23 0.20 0.20 0.21 0.21 0.17 0.15 0.15 0.11 0.08 0.05 0.03 0.02 0.01 0.00 0.00 0.00 0.00 0.01 0.03 0.02 0.01 0.01 0.01
0.02 0.00 0.00 0.00 0.03 0.05 0.02 0.02 0.04 0.04 0.02 0.01 0.02 0.02 0.01 0.02 0.04 0.04 0.04 0.11 0.09 0.09 0.14 0.19 0.16 0.15 0.16 0.18 0.19 0.19 0.16 0.12 0.10 0.09 0.10 0.07 0.06 0.04 0.01 0.00 0.00 0.00 0.00 0.00 0.00 0.00 0.00 0.00 0.00 0.00 0.00 0.01 0.04 0.05
0.07 0.03 0.01 0.01 0.02 0.05 0.03 0.01 0.01 0.02 0.02 0.06 0.07 0.04 0.04 0.07 0.07 0.08 0.10 0.16 0.15 0.16 0.19 0.21 0.22 0.17 0.16 0.15 0.13 0.11 0.07 0.06 0.03 0.02 0.02 0.00 0.00 0.00 0.00 0.00 0.01 0.00 0.00 0.01 0.02 0.02 0.00 0.00 0.00 0.01 0.01 0.02 0.03 0.04
0.07 0.04 0.02 0.02 0.04 0.09 0.16 0.14 0.14 0.15 0.13 0.13 0.10 0.08 0.13 0.18 0.13 0.14 0.16 0.22 0.24 0.25 0.20 0.16 0.12 0.09 0.10 0.09 0.07 0.05 0.03 0.01 0.01 0.01 0.01 0.01 0.00 0.00 0.00 0.00 0.01 0.00 0.00 0.01 0.01 0.01 0.02 0.02 0.02 0.01 0.02 0.02 0.04 0.05
0.06 0.05 0.05 0.07 0.15 0.19 0.18 0.16 0.20 0.23 0.23 0.18 0.15 0.14 0.16 0.12 0.13 0.15 0.19 0.22 0.18 0.14 0.09 0.06 0.04 0.03 0.03 0.03 0.04 0.03 0.01 0.00 0.00 0.01 0.01 0.01 0.00 0.00 0.00 0.00 0.00 0.00 0.00 0.00 0.00 0.01 0.01 0.04 0.04 0.04 0.04 0.05 0.05 0.05
0.08 0.10 0.10 0.10 0.06 0.07 0.09 0.12 0.14 0.15 0.13 0.11 0.09 0.08 0.08 0.08 0.12 0.13 0.14 0.14 0.11 0.09 0.06 0.05 0.06 0.05 0.03 0.01 0.00 0.00 0.00 0.00 0.00 0.00 0.00 0.01 0.01 0.01 0.00 0.00 0.00 0.00 0.00 0.00 0.00 0.00 0.02 0.05 0.06 0.08 0.05 0.06 0.06 0.05
0.02 0.02 0.02 0.01 0.02 0.04 0.04 0.05 0.08 0.08 0.05 0.04 0.03 0.03 0.03 0.07 0.12 0.12 0.10 0.08 0.07 0.08 0.08 0.07 0.05 0.02 0.02 0.01 0.01 0.01 0.01 0.00 0.00 0.00 0.00 0.00 0.01 0.01 0.00 0.01 0.01 0.00 0.01 0.01 0.01 0.00 0.00 0.01 0.02 0.03 0.03 0.05 0.06 0.05
0.01 0.01 0.01 0.01 0.02 0.03 0.03 0.02 0.05 0.07 0.06 0.04 0.04 0.04 0.05 0.07 0.09 0.07 0.06 0.09 0.06 0.05 0.04 0.02 0.00 0.00 0.00 0.00 0.00 0.00 0.01 0.01 0.01 0.00 0.01 0.01 0.01 0.01 0.01 0.01 0.01 0.01 0.01 0.01 0.01 0.01 0.01 0.01 0.02 0.02 0.02 0.03 0.03 0.04
0.01 0.01 0.01 0.03 0.05 0.02 0.01 0.02 0.05 0.08 0.06 0.05 0.05 0.04 0.06 0.06 0.04 0.05 0.04 0.04 0.02 0.01 0.01 0.01 0.01 0.01 0.01 0.01 0.01 0.00 0.01 0.00 0.00 0.01 0.01 0.01 0.01 0.01 0.01 0.01 0.01 0.01 0.02 0.01 0.01 0.01 0.02 0.01 0.02 0.02 0.03 0.03 0.03 0.03
0.01 0.00 0.01 0.01 0.01 0.03 0.02 0.01 0.01 0.02 0.03 0.04 0.05 0.05 0.06 0.06 0.05 0.06 0.05 0.02 0.01 0.01 0.01 0.01 0.01 0.01 0.01 0.00 0.00 0.00 0.00 0.00 0.00 0.00 0.01 0.02 0.01 0.01 0.01 0.01 0.01 0.01 0.00 0.00 0.00 0.01 0.01 0.01 0.01 0.02 0.02 0.01 0.02 0.02

GFSWCAN_prec_precacc24_030.txt.gz
Total_Precipitation_Accumulation
0.23 0.27 0.21 0.24 0.13 0.11 0.23 0.27 0.18 0.20 0.20 0.10 0.10 0.10 0.07 0.04 0.04 0.23 0.44 0.29 0.58 0.32 0.10 0.03 0.00 0.01 0.00 0.00 0.01 0.01 0.05 0.06 0.05 0.04 0.02 0.00 0.00 0.00 0.00 0.00 0.00 0.00 0.00 0.00 0.00 0.00 0.00 0.00 0.00 0.00 0.00 0.00 0.00 0.00
0.33 0.25 0.20 0.21 0.11 0.15 0.23 0.25 0.19 0.17 0.15 0.10 0.08 0.06 0.04 0.04 0.04 0.24 0.50 0.23 0.38 0.54 0.21 0.07 0.02 0.00 0.00 0.00 0.00 0.00 0.01 0.01 0.01 0.02 0.01 0.02 0.00 0.00 0.00 0.00 0.00 0.00 0.00 0.00 0.00 0.00 0.00 0.00 0.00 0.00 0.00 0.00 0.00 0.00
0.28 0.17 0.16 0.16 0.15 0.19 0.23 0.18 0.14 0.12 0.12 0.10 0.06 0.05 0.03 0.03 0.04 0.23 0.45 0.44 0.58 0.92 0.26 0.10 0.04 0.00 0.00 0.00 0.02 0.01 0.00 0.00 0.00 0.01 0.00 0.00 0.01 0.00 0.00 0.00 0.00 0.00 0.00 0.00 0.00 0.00 0.00 0.00 0.00 0.00 0.00 0.00 0.00 0.00
0.16 0.15 0.16 0.22 0.21 0.17 0.16 0.13 0.10 0.12 0.09 0.10 0.05 0.05 0.03 0.02 0.04 0.27 0.40 0.79 1.08 0.92 0.58 0.15 0.04 0.03 0.01 0.00 0.01 0.01 0.01 0.00 0.00 0.00 0.00 0.01 0.01 0.00 0.00 0.00 0.00 0.00 0.00 0.00 0.00 0.00 0.00 0.00 0.00 0.00 0.00 0.00 0.00 0.00
0.14 0.17 0.20 0.18 0.15 0.14 0.12 0.12 0.10 0.08 0.10 0.09 0.05 0.04 0.03 0.03 0.08 0.35 0.42 0.88 1.21 1.14 0.80 0.39 0.06 0.03 0.06 0.02 0.00 0.00 0.00 0.00 0.00 0.00 0.01 0.01 0.00 0.00 0.00 0.00 0.00 0.00 0.00 0.00 0.00 0.00 0.00 0.00 0.00 0.00 0.00 0.00 0.00 0.00
0.20 0.19 0.17 0.17 0.16 0.12 0.09 0.11 0.10 0.13 0.14 0.10 0.06 0.07 0.05 0.07 0.17 0.62 0.72 0.60 0.67 0.86 0.90 0.74 0.11 0.04 0.06 0.06 0.10 0.02 0.03 0.01 0.00 0.01 0.00 0.00 0.00 0.00 0.00 0.00 0.00 0.00 0.00 0.00 0.00 0.00 0.00 0.00 0.00 0.00 0.00 0.00 0.00 0.00
0.41 0.32 0.20 0.13 0.11 0.08 0.10 0.13 0.13 0.14 0.17 0.10 0.09 0.13 0.18 0.21 0.34 0.83 0.78 0.70 0.40 0.62 0.76 0.63 0.39 0.10 0.07 0.04 0.20 0.10 0.08 0.04 0.06 0.02 0.00 0.00 0.00 0.00 0.00 0.00 0.00 0.00 0.00 0.00 0.00 0.00 0.00 0.00 0.00 0.00 0.00 0.00 0.00 0.00
0.41 0.30 0.21 0.15 0.13 0.13 0.13 0.12 0.12 0.14 0.13 0.09 0.07 0.15 0.25 0.35 0.53 0.88 0.47 0.44 0.40 0.33 0.37 0.39 0.30 0.08 0.06 0.07 0.06 0.05 0.06 0.09 0.08 0.05 0.02 0.01 0.00 0.00 0.00 0.00 0.00 0.00 0.00 0.00 0.00 0.00 0.00 0.00 0.00 0.00 0.00 0.00 0.00 0.00
0.28 0.22 0.18 0.17 0.18 0.13 0.12 0.10 0.11 0.10 0.07 0.09 0.10 0.22 0.42 0.68 0.93 0.84 0.32 0.33 0.39 0.30 0.27 0.12 0.09 0.04 0.02 0.03 0.03 0.04 0.04 0.05 0.03 0.03 0.01 0.00 0.00 0.00 0.00 0.00 0.00 0.00 0.00 0.00 0.00 0.00 0.00 0.00 0.00 0.00 0.00 0.01 0.03 0.10
0.16 0.16 0.18 0.16 0.19 0.16 0.14 0.12 0.11 0.09 0.10 0.16 0.31 0.54 0.71 0.73 0.85 0.57 0.44 0.33 0.20 0.18 0.06 0.03 0.04 0.01 0.02 0.03 0.03 0.03 0.02 0.02 0.00 0.01 0.01 0.01 0.00 0.00 0.00 0.00 0.00 0.00 0.00 0.00 0.00 0.00 0.00 0.00 0.02 0.07 0.10 0.11 0.11 0.11
0.18 0.16 0.16 0.11 0.12 0.16 0.14 0.13 0.12 0.12 0.19 0.36 0.51 0.61 0.55 0.66 0.53 0.39 0.17 0.08 0.04 0.09 0.03 0.00 0.03 0.02 0.01 0.05 0.06 0.05 0.04 0.02 0.01 0.01 0.01 0.00 0.00 0.00 0.00 0.01 0.00 0.00 0.00 0.00 0.00 0.00 0.00 0.02 0.10 0.14 0.12 0.08 0.04 0.01
0.15 0.09 0.06 0.04 0.06 0.12 0.09 0.07 0.07 0.11 0.19 0.19 0.27 0.28 0.44 0.30 0.22 0.12 0.06 0.04 0.01 0.02 0.01 0.01 0.02 0.03 0.00 0.01 0.03 0.04 0.04 0.02 0.01 0.01 0.02 0.01 0.01 0.02 0.02 0.02 0.01 0.00 0.00 0.00 0.00 0.04 0.11 0.13 0.13 0.09 0.03 0.00 0.00 0.00
0.18 0.14 0.11 0.09 0.04 0.06 0.09 0.06 0.12 0.09 0.04 0.07 0.08 0.16 0.19 0.09 0.13 0.08 0.02 0.02 0.01 0.00 0.01 0.01 0.05 0.03 0.01 0.01 0.04 0.08 0.10 0.05 0.02 0.02 0.02 0.03 0.02 0.04 0.05 0.05 0.04 0.05 0.07 0.11 0.15 0.14 0.09 0.04 0.01 0.01 0.01 0.01 0.01 0.01
0.08 0.10 0.13 0.15 0.18 0.23 0.16 0.04 0.01 0.01 0.00 0.02 0.06 0.13 0.17 0.15 0.06 0.06 0.02 0.01 0.01 0.02 0.01 0.00 0.06 0.08 0.06 0.06 0.10 0.16 0.20 0.15 0.14 0.07 0.04 0.07 0.11 0.21 0.18 0.09 0.07 0.04 0.02 0.02 0.01 0.00 0.00 0.00 0.00 0.00 0.00 0.00 0.00 0.00
0.03 0.03 0.05 0.20 0.26 0.18 0.07 0.03 0.00 0.01 0.03 0.07 0.07 0.14 0.12 0.08 0.04 0.05 0.03 0.03 0.05 0.05 0.05 0.06 0.08 0.08 0.09 0.15 0.12 0.13 0.13 0.10 0.08 0.04 0.09 0.17 0.18 0.16 0.08 0.01 0.00 0.00 0.01 0.00 0.00 0.00 0.00 0.00 0.00 0.00 0.00 0.00 0.00 0.00
0.00 0.02 0.06 0.09 0.07 0.04 0.02 0.03 0.04 0.08 0.18 0.19 0.19 0.19 0.15 0.10 0.12 0.08 0.07 0.07 0.06 0.05 0.06 0.11 0.10 0.15 0.21 0.19 0.12 0.07 0.07 0.07 0.08 0.04 0.11 0.12 0.08 0.12 0.09 0.05 0.01 0.02 0.02 0.00 0.00 0.00 0.00 0.00 0.00 0.00 0.00 0.00 0.00 0.00
0.00 0.00 0.00 0.00 0.00 0.00 0.01 0.04 0.14 0.21 0.23 0.18 0.34 0.35 0.28 0.24 0.29 0.27 0.22 0.20 0.16 0.12 0.15 0.17 0.18 0.16 0.17 0.15 0.15 0.15 0.18 0.12 0.11 0.11 0.10 0.09 0.10 0.07 0.06 0.05 0.01 0.02 0.01 0.00 0.00 0.00 0.00 0.00 0.00 0.00 0.00 0.00 0.00 0.00
0.00 0.00 0.00 0.00 0.00 0.00 0.00 0.02 0.07 0.05 0.12 0.22 0.26 0.37 0.25 0.29 0.26 0.22 0.19 0.15 0.14 0.14 0.16 0.19 0.19 0.23 0.28 0.24 0.24 0.25 0.24 0.19 0.14 0.11 0.10 0.11 0.10 0.05 0.04 0.03 0.02 0.01 0.00 0.00 0.00 0.00 0.00 0.00 0.00 0.00 0.00 0.00 0.00 0.00
0.00 0.00 0.00 0.00 0.00 0.00 0.00 0.00 0.00 0.06 0.19 0.20 0.19 0.13 0.10 0.13 0.10 0.08 0.05 0.04 0.04 0.04 0.05 0.08 0.13 0.19 0.25 0.25 0.28 0.26 0.20 0.14 0.08 0.05 0.07 0.08 0.08 0.06 0.04 0.02 0.04 0.05 0.02 0.00 0.00 0.00 0.00 0.00 0.00 0.00 0.00 0.00 0.00 0.00
0.00 0.00 0.00 0.00 0.00 0.00 0.00 0.00 0.00 0.02 0.08 0.10 0.08 0.03 0.03 0.04 0.02 0.01 0.01 0.00 0.00 0.00 0.02 0.07 0.15 0.18 0.16 0.16 0.17 0.16 0.13 0.08 0.03 0.02 0.07 0.11 0.11 0.07 0.07 0.06 0.06 0.03 0.02 0.01 0.00 0.00 0.00 0.01 0.01 0.00 0.00 0.00 0.00 0.00
0.00 0.00 0.00 0.00 0.00 0.00 0.00 0.00 0.00 0.00 0.01 0.00 0.00 0.00 0.00 0.00 0.01 0.01 0.01 0.00 0.01 0.03 0.09 0.15 0.16 0.14 0.10 0.08 0.07 0.07 0.09 0.10 0.11 0.09 0.08 0.12 0.13 0.10 0.11 0.12 0.11 0.09 0.07 0.07 0.07 0.06 0.05 0.05 0.04 0.01 0.00 0.00 0.00 0.01
0.00 0.00 0.00 0.00 0.00 0.00 0.00 0.00 0.00 0.00 0.00 0.01 0.01 0.01 0.02 0.02 0.02 0.02 0.02 0.03 0.07 0.14 0.16 0.11 0.07 0.06 0.05 0.05 0.04 0.05 0.07 0.09 0.15 0.23 0.30 0.24 0.24 0.23 0.24 0.24 0.17 0.16 0.15 0.15 0.13 0.11 0.08 0.04 0.01 0.00 0.00 0.01 0.01 0.02
0.00 0.00 0.00 0.00 0.00 0.00 0.00 0.00 0.02 0.01 0.00 0.01 0.02 0.02 0.02 0.01 0.02 0.02 0.04 0.06 0.11 0.13 0.15 0.08 0.05 0.08 0.12 0.18 0.16 0.14 0.13 0.10 0.11 0.16 0.20 0.22 0.23 0.24 0.23 0.21 0.19 0.16 0.13 0.10 0.06 0.04 0.02 0.01 0.00 0.00 0.00 0.00 0.01 0.01
0.00 0.00 0.00 0.00 0.00 0.00 0.00 0.00 0.01 0.01 0.01 0.01 0.02 0.02 0.02 0.01 0.01 0.03 0.04 0.07 0.11 0.06 0.06 0.12 0.14 0.13 0.13 0.14 0.16 0.19 0.24 0.20 0.21 0.22 0.22 0.18 0.16 0.17 0.12 0.10 0.07 0.05 0.03 0.02 0.00 0.00 0.00 0.00 0.00 0.00 0.00 0.00 0.00 0.01
0.00 0.00 0.00 0.00 0.01 0.01 0.01 0.01 0.01 0.02 0.02 0.01 0.02 0.02 0.01 0.02 0.04 0.04 0.05 0.12 0.10 0.10 0.15 0.20 0.16 0.16 0.16 0.18 0.19 0.19 0.17 0.12 0.10 0.09 0.11 0.07 0.07 0.05 0.01 0.00 0.00 0.00 0.00 0.00 0.00 0.00 0.00 0.00 0.00 0.00 0.00 0.00 0.01 0.02
0.01 0.02 0.01 0.01 0.01 0.01 0.01 0.01 0.01 0.02 0.02 0.03 0.05 0.04 0.04 0.07 0.06 0.09 0.10 0.16 0.16 0.17 0.20 0.22 0.22 0.17 0.16 0.15 0.13 0.11 0.08 0.06 0.03 0.02 0.01 0.00 0.00 0.00 0.00 0.00 0.00 0.00 0.00 0.01 0.01 0.01 0.00 0.00 0.00 0.00 0.01 0.01 0.02 0.02
0.04 0.02 0.01 0.01 0.02 0.05 0.09 0.09 0.09 0.12 0.10 0.11 0.09 0.07 0.14 0.18 0.13 0.14 0.16 0.20 0.23 0.25 0.21 0.17 0.12 0.10 0.10 0.09 0.07 0.06 0.03 0.01 0.01 0.00 0.00 0.00 0.00 0.00 0.00 0.00 0.00 0.00 0.00 0.00 0.01 0.01 0.01 0.01 0.01 0.01 0.02 0.02 0.02 0.03
0.03 0.02 0.03 0.03 0.07 0.12 0.10 0.08 0.11 0.16 0.18 0.15 0.15 0.14 0.15 0.13 0.13 0.15 0.19 0.22 0.17 0.13 0.09 0.07 0.05 0.03 0.03 0.03 0.04 0.03 0.01 0.00 0.01 0.00 0.00 0.01 0.00 0.00 0.00 0.00 0.00 0.00 0.00 0.00 0.00 0.01 0.01 0.02 0.03 0.04 0.03 0.02 0.02 0.03
0.04 0.04 0.05 0.04 0.03 0.05 0.07 0.10 0.12 0.13 0.12 0.11 0.10 0.08 0.08 0.08 0.13 0.14 0.16 0.16 0.13 0.10 0.07 0.06 0.08 0.05 0.03 0.01 0.00 0.00 0.00 0.00 0.00 0.00 0.00 0.01 0.02 0.01 0.00 0.00 0.01 0.00 0.00 0.00 0.00 0.00 0.01 0.02 0.03 0.03 0.02 0.02 0.02 0.03
0.02 0.02 0.02 0.01 0.02 0.04 0.05 0.05 0.08 0.08 0.05 0.04 0.03 0.03 0.03 0.07 0.12 0.12 0.10 0.08 0.07 0.07 0.07 0.07 0.06 0.03 0.02 0.01 0.01 0.01 0.01 0.00 0.00 0.00 0.00 0.00 0.01 0.01 0.01 0.01 0.01 0.01 0.01 0.01 0.01 0.00 0.00 0.00 0.00 0.00 0.01 0.02 0.02 0.02
0.01 0.01 0.01 0.01 0.03 0.04 0.04 0.03 0.06 0.07 0.06 0.04 0.04 0.03 0.04 0.07 0.08 0.07 0.06 0.09 0.06 0.06 0.04 0.02 0.00 0.00 0.00 0.00 0.00 0.00 0.01 0.00 0.01 0.01 0.00 0.01 0.01 0.01 0.01 0.01 0.01 0.01 0.01 0.01 0.01 0.01 0.01 0.00 0.01 0.01 0.01 0.01 0.01 0.01
0.00 0.01 0.01 0.02 0.04 0.02 0.01 0.03 0.07 0.11 0.07 0.05 0.05 0.04 0.05 0.05 0.04 0.05 0.04 0.04 0.02 0.01 0.01 0.01 0.01 0.01 0.00 0.00 0.00 0.00 0.00 0.00 0.00 0.01 0.01 0.01 0.01 0.01 0.01 0.01 0.01 0.01 0.01 0.01 0.01 0.01 0.01 0.01 0.01 0.01 0.01 0.01 0.01 0.01
0.01 0.00 0.01 0.01 0.02 0.03 0.02 0.01 0.01 0.03 0.04 0.04 0.05 0.05 0.05 0.05 0.05 0.07 0.06 0.02 0.01 0.01 0.01 0.01 0.01 0.01 0.02 0.00 0.00 0.00 0.00 0.00 0.00 0.00 0.01 0.02 0.01 0.01 0.01 0.01 0.01 0.01 0.01 0.01 0.01 0.01 0.01 0.01 0.01 0.01 0.01 0.00 0.00 0.01

GFSWCAN_prec_precacc24_033.txt.gz
Total_Precipitation_Accumulation
0.38 0.41 0.36 0.37 0.23 0.17 0.27 0.29 0.19 0.20 0.20 0.10 0.10 0.10 0.07 0.04 0.08 0.29 0.53 0.40 0.66 0.38 0.14 0.05 0.03 0.01 0.00 0.00 0.01 0.01 0.06 0.07 0.08 0.07 0.02 0.00 0.00 0.00 0.00 0.00 0.00 0.00 0.00 0.00 0.00 0.00 0.00 0.00 0.00 0.00 0.00 0.00 0.00 0.00
0.39 0.31 0.27 0.27 0.15 0.17 0.25 0.27 0.19 0.18 0.15 0.10 0.09 0.06 0.04 0.04 0.07 0.31 0.56 0.30 0.43 0.60 0.28 0.09 0.03 0.00 0.00 0.00 0.00 0.00 0.01 0.01 0.01 0.04 0.01 0.02 0.00 0.00 0.00 0.00 0.00 0.00 0.00 0.00 0.00 0.00 0.00 0.00 0.00 0.00 0.00 0.00 0.00 0.00
0.30 0.19 0.18 0.17 0.16 0.20 0.25 0.20 0.15 0.14 0.13 0.10 0.06 0.05 0.03 0.05 0.08 0.31 0.47 0.46 0.61 0.99 0.44 0.13 0.04 0.00 0.00 0.00 0.02 0.01 0.00 0.01 0.02 0.05 0.03 0.01 0.01 0.00 0.00 0.00 0.00 0.00 0.00 0.00 0.00 0.00 0.00 0.00 0.00 0.00 0.00 0.00 0.00 0.00
0.18 0.16 0.18 0.23 0.22 0.18 0.17 0.15 0.14 0.13 0.11 0.10 0.05 0.06 0.06 0.05 0.09 0.31 0.41 0.82 1.12 1.03 0.83 0.27 0.12 0.06 0.02 0.00 0.01 0.02 0.01 0.00 0.02 0.03 0.05 0.02 0.01 0.00 0.00 0.00 0.00 0.00 0.00 0.00 0.00 0.00 0.00 0.00 0.00 0.00 0.00 0.00 0.00 0.00
0.14 0.18 0.21 0.18 0.16 0.15 0.14 0.16 0.14 0.10 0.12 0.10 0.08 0.08 0.07 0.07 0.12 0.37 0.46 0.92 1.29 1.31 1.01 0.59 0.14 0.11 0.08 0.02 0.01 0.01 0.01 0.00 0.00 0.04 0.04 0.02 0.00 0.00 0.00 0.00 0.00 0.00 0.00 0.00 0.00 0.00 0.00 0.00 0.00 0.00 0.00 0.00 0.00 0.00
0.18 0.19 0.18 0.18 0.17 0.13 0.12 0.15 0.13 0.16 0.17 0.14 0.12 0.13 0.10 0.11 0.19 0.65 0.82 0.66 0.71 0.97 1.03 0.87 0.17 0.09 0.11 0.10 0.12 0.04 0.03 0.02 0.03 0.03 0.01 0.00 0.00 0.00 0.00 0.00 0.00 0.00 0.00 0.00 0.00 0.00 0.00 0.00 0.00 0.00 0.00 0.00 0.00 0.00
0.37 0.30 0.20 0.14 0.12 0.08 0.11 0.14 0.16 0.18 0.21 0.17 0.17 0.17 0.19 0.22 0.34 0.89 0.84 0.73 0.40 0.67 0.86 0.79 0.58 0.15 0.14 0.15 0.45 0.28 0.15 0.09 0.11 0.04 0.00 0.00 0.00 0.00 0.00 0.00 0.00 0.00 0.00 0.00 0.00 0.00 0.00 0.00 0.00 0.00 0.00 0.00 0.00 0.00
0.35 0.27 0.21 0.15 0.13 0.13 0.13 0.12 0.13 0.15 0.15 0.12 0.10 0.16 0.25 0.38 0.59 0.95 0.59 0.56 0.44 0.37 0.50 0.59 0.71 0.34 0.13 0.14 0.25 0.47 0.21 0.19 0.16 0.09 0.04 0.01 0.00 0.00 0.00 0.00 0.00 0.00 0.00 0.00 0.00 0.00 0.00 0.00 0.00 0.00 0.00 0.00 0.00 0.00
0.24 0.20 0.17 0.17 0.18 0.13 0.12 0.10 0.11 0.10 0.07 0.08 0.11 0.25 0.50 0.81 1.02 0.87 0.47 0.60 0.56 0.40 0.42 0.25 0.46 0.39 0.11 0.09 0.06 0.26 0.29 0.24 0.10 0.09 0.05 0.03 0.01 0.00 0.00 0.00 0.00 0.00 0.00 0.00 0.00 0.00 0.00 0.00 0.00 0.00 0.00 0.00 0.01 0.09
0.17 0.17 0.18 0.16 0.19 0.16 0.13 0.11 0.11 0.08 0.10 0.20 0.37 0.64 0.82 0.86 1.00 0.69 0.68 0.71 0.47 0.33 0.16 0.10 0.21 0.36 0.15 0.11 0.08 0.05 0.26 0.28 0.15 0.04 0.04 0.05 0.02 0.00 0.00 0.00 0.00 0.00 0.00 0.00 0.00 0.00 0.00 0.00 0.00 0.00 0.01 0.04 0.09 0.11
0.22 0.18 0.16 0.11 0.12 0.16 0.13 0.13 0.13 0.17 0.31 0.47 0.66 0.77 0.69 0.83 0.85 0.76 0.61 0.44 0.30 0.20 0.07 0.03 0.11 0.29 0.10 0.07 0.10 0.05 0.05 0.07 0.03 0.01 0.02 0.02 0.01 0.00 0.00 0.01 0.01 0.00 0.00 0.01 0.00 0.00 0.00 0.00 0.01 0.06 0.09 0.06 0.03 0.01
0.19 0.11 0.06 0.04 0.06 0.12 0.09 0.07 0.11 0.25 0.36 0.39 0.46 0.44 0.70 0.73 0.64 0.45 0.28 0.14 0.05 0.03 0.02 0.02 0.04 0.12 0.10 0.03 0.04 0.04 0.04 0.01 0.01 0.01 0.02 0.01 0.01 0.02 0.02 0.02 0.02 0.01 0.01 0.01 0.00 0.00 0.01 0.04 0.08 0.07 0.02 0.00 0.00 0.00
0.21 0.16 0.12 0.09 0.04 0.07 0.10 0.11 0.26 0.36 0.37 0.26 0.30 0.44 0.57 0.36 0.30 0.18 0.07 0.03 0.01 0.00 0.01 0.02 0.06 0.04 0.04 0.03 0.03 0.04 0.04 0.01 0.00 0.01 0.01 0.02 0.02 0.04 0.06 0.05 0.04 0.02 0.03 0.02 0.02 0.02 0.03 0.02 0.01 0.01 0.01 0.01 0.01 0.01
0.13 0.14 0.16 0.18 0.21 0.27 0.27 0.28 0.37 0.43 0.31 0.33 0.28 0.26 0.21 0.13 0.06 0.03 0.01 0.01 0.00 0.02 0.01 0.00 0.06 0.09 0.06 0.04 0.05 0.09 0.12 0.09 0.08 0.04 0.02 0.04 0.08 0.14 0.12 0.05 0.02 0.02 0.03 0.02 0.00 0.00 0.00 0.00 0.00 0.00 0.00 0.00 0.00 0.00
0.11 0.11 0.16 0.34 0.39 0.32 0.26 0.29 0.20 0.15 0.11 0.12 0.09 0.14 0.11 0.08 0.04 0.05 0.04 0.02 0.04 0.03 0.03 0.02 0.03 0.10 0.17 0.18 0.09 0.09 0.08 0.06 0.05 0.02 0.05 0.07 0.09 0.09 0.04 0.02 0.00 0.00 0.00 0.00 0.01 0.00 0.00 0.00 0.00 0.00 0.00 0.00 0.00 0.00
0.05 0.08 0.15 0.21 0.16 0.09 0.07 0.07 0.07 0.09 0.18 0.19 0.21 0.20 0.16 0.11 0.12 0.09 0.08 0.07 0.06 0.05 0.04 0.08 0.06 0.09 0.16 0.16 0.12 0.07 0.05 0.04 0.04 0.03 0.05 0.03 0.07 0.11 0.06 0.02 0.02 0.02 0.02 0.02 0.01 0.01 0.00 0.00 0.00 0.00 0.00 0.00 0.00 0.00
0.07 0.07 0.07 0.04 0.02 0.01 0.01 0.06 0.14 0.21 0.23 0.20 0.39 0.39 0.30 0.27 0.32 0.30 0.27 0.24 0.18 0.13 0.16 0.16 0.19 0.19 0.19 0.15 0.13 0.13 0.15 0.13 0.12 0.13 0.12 0.10 0.12 0.11 0.10 0.10 0.06 0.04 0.02 0.00 0.00 0.00 0.00 0.00 0.00 0.00 0.00 0.00 0.00 0.00
0.03 0.03 0.01 0.00 0.00 0.01 0.01 0.03 0.07 0.05 0.15 0.27 0.31 0.43 0.30 0.35 0.32 0.29 0.30 0.26 0.23 0.22 0.22 0.26 0.24 0.27 0.31 0.26 0.25 0.29 0.30 0.30 0.23 0.18 0.17 0.18 0.17 0.12 0.09 0.07 0.05 0.04 0.02 0.01 0.00 0.00 0.00 0.00 0.00 0.00 0.00 0.00 0.00 0.00
0.00 0.00 0.00 0.00 0.00 0.00 0.01 0.01 0.01 0.08 0.26 0.27 0.26 0.19 0.15 0.19 0.17 0.17 0.13 0.10 0.08 0.07 0.08 0.12 0.16 0.24 0.32 0.32 0.37 0.36 0.32 0.26 0.19 0.14 0.12 0.14 0.15 0.13 0.11 0.09 0.11 0.12 0.06 0.02 0.01 0.00 0.00 0.00 0.00 0.00 0.00 0.00 0.00 0.00
0.00 0.00 0.00 0.00 0.00 0.00 0.00 0.00 0.00 0.04 0.14 0.17 0.14 0.05 0.03 0.04 0.02 0.01 0.01 0.00 0.00 0.00 0.03 0.10 0.21 0.26 0.25 0.26 0.28 0.27 0.25 0.20 0.12 0.06 0.11 0.16 0.18 0.14 0.15 0.13 0.12 0.08 0.05 0.04 0.03 0.02 0.02 0.03 0.03 0.02 0.01 0.01 0.01 0.01
0.00 0.00 0.00 0.00 0.00 0.00 0.00 0.00 0.01 0.02 0.03 0.02 0.01 0.00 0.00 0.00 0.01 0.01 0.01 0.00 0.01 0.03 0.13 0.20 0.22 0.20 0.16 0.13 0.12 0.12 0.14 0.15 0.17 0.13 0.12 0.16 0.18 0.14 0.16 0.18 0.16 0.14 0.12 0.13 0.13 0.13 0.11 0.11 0.09 0.06 0.04 0.03 0.02 0.02
0.00 0.00 0.00 0.00 0.00 0.00 0.00 0.00 0.00 0.00 0.00 0.01 0.01 0.01 0.02 0.02 0.02 0.02 0.02 0.03 0.09 0.18 0.20 0.15 0.10 0.08 0.06 0.06 0.06 0.06 0.09 0.11 0.17 0.27 0.34 0.28 0.29 0.29 0.31 0.32 0.24 0.23 0.21 0.21 0.17 0.15 0.12 0.08 0.05 0.04 0.02 0.01 0.00 0.01
0.00 0.00 0.00 0.00 0.00 0.00 0.00 0.00 0.00 0.00 0.00 0.01 0.01 0.01 0.02 0.02 0.03 0.02 0.04 0.07 0.14 0.18 0.19 0.09 0.05 0.09 0.12 0.18 0.16 0.15 0.13 0.10 0.12 0.17 0.22 0.25 0.27 0.28 0.27 0.26 0.24 0.21 0.17 0.15 0.10 0.07 0.04 0.02 0.01 0.00 0.00 0.00 0.00 0.00
0.00 0.00 0.00 0.00 0.00 0.00 0.00 0.00 0.00 0.01 0.01 0.01 0.01 0.02 0.02 0.03 0.01 0.03 0.04 0.08 0.14 0.08 0.08 0.13 0.14 0.13 0.13 0.14 0.16 0.19 0.25 0.20 0.21 0.22 0.23 0.18 0.17 0.18 0.14 0.11 0.08 0.06 0.04 0.03 0.00 0.00 0.00 0.00 0.00 0.00 0.00 0.00 0.00 0.00
0.00 0.00 0.00 0.00 0.00 0.00 0.00 0.01 0.01 0.01 0.00 0.01 0.01 0.02 0.02 0.02 0.04 0.04 0.05 0.12 0.10 0.10 0.15 0.19 0.16 0.15 0.16 0.18 0.19 0.19 0.17 0.12 0.10 0.09 0.11 0.08 0.07 0.05 0.01 0.00 0.00 0.00 0.00 0.00 0.00 0.00 0.00 0.00 0.00 0.00 0.00 0.00 0.01 0.01
0.01 0.02 0.01 0.01 0.01 0.01 0.01 0.01 0.01 0.02 0.02 0.02 0.03 0.03 0.04 0.05 0.05 0.09 0.09 0.15 0.15 0.16 0.20 0.21 0.21 0.16 0.15 0.13 0.12 0.10 0.08 0.06 0.03 0.02 0.01 0.00 0.00 0.00 0.00 0.00 0.00 0.00 0.00 0.00 0.01 0.01 0.00 0.00 0.00 0.00 0.01 0.01 0.01 0.02
0.02 0.02 0.01 0.02 0.02 0.02 0.03 0.04 0.04 0.07 0.07 0.08 0.08 0.07 0.11 0.13 0.10 0.13 0.15 0.19 0.22 0.24 0.22 0.17 0.12 0.09 0.10 0.09 0.07 0.06 0.03 0.01 0.01 0.00 0.00 0.00 0.00 0.00 0.00 0.00 0.00 0.00 0.00 0.00 0.01 0.01 0.01 0.01 0.01 0.01 0.01 0.01 0.01 0.02
0.02 0.01 0.02 0.01 0.01 0.04 0.05 0.03 0.05 0.10 0.11 0.09 0.11 0.08 0.10 0.10 0.12 0.15 0.19 0.22 0.16 0.12 0.08 0.06 0.04 0.03 0.03 0.03 0.04 0.03 0.02 0.01 0.00 0.00 0.00 0.01 0.00 0.00 0.00 0.01 0.00 0.00 0.00 0.01 0.00 0.01 0.01 0.02 0.02 0.03 0.02 0.02 0.01 0.01
0.02 0.02 0.02 0.01 0.01 0.03 0.05 0.07 0.08 0.08 0.07 0.07 0.08 0.06 0.07 0.08 0.14 0.15 0.16 0.16 0.14 0.10 0.07 0.06 0.08 0.05 0.03 0.01 0.00 0.00 0.00 0.00 0.00 0.00 0.00 0.01 0.02 0.01 0.00 0.00 0.01 0.00 0.01 0.01 0.00 0.00 0.01 0.02 0.03 0.01 0.00 0.01 0.01 0.03
0.01 0.01 0.01 0.00 0.01 0.04 0.06 0.04 0.08 0.06 0.03 0.03 0.03 0.03 0.04 0.08 0.14 0.12 0.10 0.08 0.07 0.07 0.07 0.06 0.05 0.02 0.02 0.01 0.01 0.01 0.01 0.00 0.00 0.00 0.00 0.00 0.00 0.01 0.01 0.01 0.01 0.01 0.01 0.01 0.01 0.00 0.00 0.00 0.00 0.00 0.01 0.01 0.02 0.01
0.01 0.01 0.01 0.01 0.03 0.05 0.05 0.03 0.06 0.06 0.06 0.03 0.03 0.03 0.04 0.07 0.08 0.06 0.06 0.09 0.05 0.05 0.04 0.02 0.00 0.00 0.00 0.00 0.00 0.00 0.01 0.01 0.01 0.01 0.00 0.01 0.01 0.01 0.01 0.01 0.01 0.02 0.01 0.01 0.01 0.01 0.01 0.00 0.01 0.01 0.01 0.01 0.01 0.01
0.00 0.01 0.00 0.01 0.04 0.04 0.03 0.05 0.08 0.11 0.07 0.05 0.05 0.04 0.05 0.05 0.04 0.05 0.04 0.04 0.02 0.01 0.01 0.01 0.01 0.01 0.01 0.00 0.00 0.00 0.00 0.00 0.00 0.01 0.01 0.01 0.01 0.01 0.01 0.01 0.01 0.01 0.01 0.01 0.01 0.01 0.01 0.01 0.01 0.01 0.01 0.01 0.01 0.00
0.01 0.00 0.01 0.01 0.03 0.04 0.02 0.02 0.04 0.04 0.04 0.04 0.04 0.04 0.05 0.05 0.05 0.06 0.06 0.02 0.01 0.01 0.01 0.01 0.01 0.02 0.02 0.00 0.00 0.00 0.00 0.00 0.00 0.00 0.01 0.02 0.01 0.01 0.01 0.01 0.01 0.01 0.01 0.01 0.01 0.01 0.01 0.01 0.01 0.01 0.01 0.00 0.00 0.01

GFSWCAN_prec_precacc24_036.txt.gz
Total_Precipitation_Accumulation
0.43 0.46 0.40 0.43 0.32 0.35 0.45 0.47 0.35 0.31 0.27 0.13 0.11 0.11 0.08 0.05 0.09 0.30 0.59 0.51 0.80 0.51 0.16 0.07 0.06 0.01 0.00 0.00 0.01 0.01 0.06 0.07 0.08 0.08 0.03 0.00 0.01 0.00 0.00 0.00 0.00 0.00 0.00 0.00 0.00 0.00 0.00 0.00 0.00 0.00 0.00 0.00 0.00 0.00
0.50 0.43 0.41 0.41 0.32 0.37 0.44 0.43 0.31 0.23 0.18 0.12 0.10 0.07 0.06 0.05 0.09 0.32 0.61 0.49 0.57 0.75 0.31 0.11 0.04 0.00 0.00 0.00 0.00 0.00 0.01 0.01 0.01 0.04 0.02 0.04 0.01 0.00 0.00 0.00 0.00 0.00 0.00 0.00 0.00 0.00 0.00 0.00 0.00 0.00 0.00 0.00 0.00 0.00
0.37 0.30 0.31 0.30 0.29 0.34 0.36 0.28 0.20 0.16 0.15 0.12 0.08 0.06 0.05 0.06 0.10 0.32 0.54 0.66 0.77 1.07 0.46 0.15 0.07 0.01 0.00 0.00 0.02 0.01 0.00 0.01 0.02 0.05 0.05 0.04 0.02 0.00 0.00 0.00 0.00 0.00 0.00 0.00 0.00 0.00 0.00 0.00 0.00 0.00 0.00 0.00 0.00 0.00
0.21 0.19 0.22 0.27 0.25 0.22 0.20 0.17 0.16 0.15 0.12 0.12 0.07 0.08 0.06 0.06 0.12 0.35 0.51 1.00 1.25 1.10 0.86 0.28 0.13 0.07 0.03 0.00 0.01 0.02 0.02 0.00 0.03 0.05 0.08 0.05 0.02 0.01 0.00 0.00 0.00 0.00 0.00 0.00 0.00 0.00 0.00 0.00 0.00 0.00 0.00 0.00 0.00 0.00
0.16 0.20 0.23 0.19 0.17 0.16 0.15 0.17 0.15 0.11 0.13 0.12 0.10 0.10 0.08 0.08 0.15 0.44 0.56 1.06 1.38 1.39 1.05 0.60 0.17 0.13 0.10 0.03 0.01 0.01 0.01 0.01 0.03 0.10 0.09 0.04 0.01 0.01 0.01 0.00 0.00 0.00 0.00 0.00 0.00 0.00 0.00 0.00 0.00 0.00 0.00 0.00 0.00 0.00
0.19 0.20 0.19 0.19 0.18 0.14 0.13 0.15 0.14 0.17 0.18 0.15 0.13 0.14 0.12 0.15 0.27 0.77 0.99 0.79 0.76 1.03 1.08 0.94 0.24 0.11 0.15 0.14 0.15 0.05 0.04 0.03 0.06 0.07 0.06 0.02 0.01 0.01 0.00 0.00 0.00 0.00 0.00 0.00 0.00 0.00 0.00 0.00 0.00 0.00 0.00 0.00 0.00 0.00
0.37 0.30 0.20 0.14 0.12 0.09 0.12 0.16 0.19 0.19 0.21 0.18 0.19 0.22 0.25 0.32 0.41 0.96 0.90 0.75 0.41 0.70 0.94 0.86 0.66 0.18 0.18 0.23 0.50 0.29 0.15 0.11 0.14 0.09 0.03 0.01 0.00 0.00 0.00 0.00 0.00 0.00 0.00 0.00 0.00 0.00 0.00 0.00 0.00 0.00 0.00 0.00 0.00 0.00
0.35 0.27 0.21 0.16 0.12 0.14 0.15 0.16 0.16 0.17 0.20 0.19 0.18 0.26 0.30 0.44 0.61 0.96 0.64 0.60 0.44 0.39 0.59 0.70 0.75 0.43 0.18 0.24 0.32 0.50 0.23 0.21 0.20 0.12 0.04 0.02 0.01 0.00 0.00 0.00 0.00 0.00 0.00 0.00 0.00 0.00 0.00 0.00 0.00 0.00 0.00 0.00 0.00 0.00
0.23 0.20 0.17 0.17 0.17 0.14 0.14 0.12 0.13 0.15 0.14 0.18 0.26 0.32 0.52 0.83 1.03 0.91 0.63 0.65 0.57 0.44 0.52 0.31 0.48 0.45 0.29 0.15 0.11 0.30 0.33 0.28 0.17 0.15 0.07 0.04 0.01 0.01 0.00 0.00 0.00 0.00 0.00 0.00 0.00 0.00 0.00 0.00 0.00 0.00 0.00 0.00 0.00 0.04
0.15 0.17 0.18 0.16 0.18 0.17 0.14 0.12 0.13 0.12 0.14 0.24 0.40 0.65 0.86 0.88 1.06 0.84 1.12 0.86 0.53 0.38 0.23 0.18 0.25 0.38 0.40 0.35 0.17 0.09 0.31 0.34 0.31 0.24 0.17 0.11 0.03 0.01 0.00 0.00 0.00 0.00 0.00 0.00 0.00 0.00 0.00 0.00 0.00 0.00 0.00 0.01 0.02 0.03
0.19 0.17 0.16 0.11 0.12 0.16 0.13 0.12 0.13 0.17 0.31 0.48 0.68 0.89 0.77 0.89 0.91 0.92 0.87 0.61 0.45 0.28 0.08 0.03 0.11 0.34 0.35 0.36 0.36 0.13 0.13 0.30 0.27 0.22 0.23 0.19 0.08 0.03 0.02 0.02 0.01 0.00 0.01 0.01 0.00 0.00 0.00 0.00 0.01 0.01 0.01 0.01 0.00 0.00
0.18 0.10 0.06 0.04 0.06 0.12 0.09 0.07 0.12 0.26 0.37 0.47 0.62 0.58 0.77 0.75 0.66 0.52 0.39 0.31 0.18 0.07 0.04 0.03 0.04 0.18 0.42 0.41 0.39 0.22 0.09 0.10 0.15 0.14 0.16 0.12 0.08 0.03 0.02 0.03 0.03 0.02 0.01 0.01 0.00 0.00 0.00 0.00 0.00 0.00 0.00 0.00 0.00 0.00
0.21 0.16 0.12 0.09 0.04 0.07 0.10 0.14 0.33 0.49 0.67 0.49 0.36 0.51 0.62 0.43 0.41 0.33 0.19 0.11 0.06 0.01 0.02 0.05 0.08 0.07 0.26 0.43 0.27 0.15 0.11 0.05 0.03 0.02 0.02 0.05 0.04 0.04 0.05 0.04 0.02 0.01 0.00 0.00 0.00 0.00 0.01 0.02 0.03 0.04 0.05 0.02 0.01 0.00
0.13 0.14 0.16 0.18 0.21 0.27 0.29 0.34 0.64 0.90 0.63 0.38 0.34 0.45 0.36 0.31 0.19 0.11 0.07 0.03 0.02 0.03 0.03 0.02 0.07 0.09 0.09 0.20 0.15 0.07 0.08 0.07 0.06 0.03 0.02 0.02 0.04 0.06 0.05 0.02 0.01 0.02 0.04 0.06 0.07 0.09 0.09 0.08 0.06 0.03 0.01 0.00 0.00 0.00
0.12 0.12 0.17 0.37 0.41 0.33 0.31 0.46 0.62 0.49 0.20 0.17 0.28 0.28 0.21 0.19 0.12 0.12 0.07 0.03 0.05 0.05 0.03 0.01 0.02 0.09 0.13 0.16 0.09 0.07 0.06 0.05 0.06 0.03 0.03 0.03 0.05 0.05 0.04 0.02 0.01 0.02 0.02 0.02 0.03 0.03 0.03 0.03 0.01 0.01 0.00 0.00 0.00 0.00
0.09 0.13 0.24 0.31 0.25 0.26 0.31 0.39 0.38 0.14 0.18 0.22 0.28 0.25 0.19 0.14 0.15 0.11 0.09 0.09 0.07 0.06 0.04 0.05 0.05 0.08 0.15 0.12 0.11 0.07 0.05 0.07 0.08 0.06 0.05 0.03 0.08 0.10 0.05 0.04 0.06 0.06 0.05 0.06 0.07 0.06 0.03 0.01 0.00 0.00 0.00 0.00 0.00 0.00
0.09 0.10 0.18 0.14 0.13 0.13 0.16 0.17 0.16 0.21 0.23 0.21 0.44 0.45 0.34 0.30 0.35 0.34 0.30 0.27 0.19 0.14 0.16 0.16 0.20 0.20 0.19 0.15 0.13 0.14 0.17 0.19 0.19 0.20 0.17 0.13 0.16 0.16 0.16 0.17 0.12 0.08 0.06 0.04 0.05 0.05 0.04 0.03 0.01 0.00 0.00 0.00 0.00 0.00
0.16 0.11 0.07 0.06 0.07 0.07 0.05 0.05 0.07 0.06 0.17 0.31 0.37 0.50 0.33 0.38 0.35 0.32 0.35 0.32 0.26 0.25 0.23 0.28 0.25 0.28 0.31 0.27 0.27 0.31 0.36 0.41 0.39 0.35 0.31 0.29 0.28 0.22 0.17 0.14 0.11 0.06 0.05 0.05 0.04 0.04 0.03 0.02 0.00 0.00 0.00 0.00 0.00 0.00
0.18 0.06 0.04 0.09 0.13 0.19 0.07 0.03 0.01 0.10 0.31 0.32 0.32 0.23 0.16 0.21 0.21 0.21 0.16 0.11 0.09 0.08 0.08 0.13 0.18 0.28 0.37 0.38 0.44 0.44 0.42 0.37 0.33 0.25 0.20 0.21 0.23 0.22 0.20 0.16 0.16 0.16 0.11 0.07 0.03 0.02 0.02 0.01 0.00 0.00 0.00 0.00 0.00 0.00
0.00 0.00 0.00 0.01 0.03 0.03 0.00 0.01 0.00 0.05 0.17 0.22 0.15 0.05 0.03 0.04 0.02 0.01 0.01 0.00 0.00 0.00 0.04 0.13 0.27 0.34 0.33 0.35 0.38 0.37 0.35 0.31 0.21 0.11 0.15 0.20 0.24 0.19 0.21 0.19 0.18 0.14 0.11 0.10 0.08 0.07 0.06 0.06 0.07 0.06 0.05 0.04 0.04 0.03
0.00 0.00 0.00 0.00 0.00 0.00 0.00 0.00 0.01 0.02 0.04 0.02 0.01 0.00 0.00 0.00 0.00 0.01 0.01 0.00 0.01 0.04 0.16 0.28 0.29 0.28 0.23 0.20 0.19 0.19 0.19 0.20 0.21 0.16 0.16 0.20 0.23 0.18 0.20 0.23 0.21 0.20 0.17 0.18 0.17 0.17 0.14 0.14 0.12 0.09 0.07 0.05 0.04 0.04
0.00 0.00 0.00 0.00 0.00 0.00 0.00 0.00 0.00 0.00 0.00 0.01 0.01 0.01 0.01 0.02 0.02 0.01 0.01 0.03 0.11 0.21 0.24 0.19 0.14 0.12 0.08 0.08 0.08 0.08 0.12 0.12 0.19 0.29 0.37 0.30 0.31 0.31 0.33 0.37 0.28 0.26 0.25 0.25 0.21 0.18 0.15 0.11 0.07 0.05 0.03 0.03 0.02 0.01
0.00 0.00 0.00 0.00 0.00 0.00 0.00 0.00 0.00 0.00 0.00 0.01 0.01 0.01 0.02 0.02 0.03 0.02 0.03 0.07 0.16 0.23 0.22 0.11 0.07 0.09 0.12 0.16 0.12 0.12 0.13 0.10 0.12 0.17 0.23 0.25 0.27 0.30 0.28 0.28 0.26 0.22 0.19 0.17 0.12 0.09 0.06 0.03 0.01 0.00 0.00 0.00 0.00 0.00
0.00 0.00 0.00 0.00 0.00 0.00 0.00 0.00 0.00 0.00 0.00 0.01 0.01 0.02 0.03 0.03 0.01 0.02 0.04 0.09 0.17 0.11 0.09 0.14 0.14 0.11 0.11 0.12 0.14 0.19 0.25 0.20 0.21 0.23 0.24 0.18 0.17 0.18 0.14 0.11 0.08 0.06 0.04 0.03 0.01 0.00 0.00 0.00 0.00 0.00 0.00 0.00 0.00 0.00
0.00 0.00 0.00 0.00 0.00 0.00 0.00 0.01 0.01 0.00 0.00 0.01 0.01 0.02 0.03 0.02 0.02 0.03 0.05 0.12 0.09 0.09 0.13 0.17 0.14 0.13 0.15 0.16 0.18 0.18 0.16 0.12 0.09 0.09 0.11 0.08 0.07 0.05 0.01 0.00 0.00 0.00 0.00 0.00 0.00 0.00 0.00 0.00 0.00 0.00 0.00 0.01 0.01 0.01
0.01 0.02 0.01 0.01 0.01 0.01 0.01 0.01 0.01 0.02 0.01 0.02 0.03 0.03 0.03 0.04 0.03 0.06 0.08 0.13 0.12 0.14 0.16 0.19 0.20 0.15 0.14 0.12 0.10 0.09 0.07 0.06 0.03 0.02 0.01 0.00 0.00 0.00 0.00 0.00 0.00 0.01 0.00 0.00 0.00 0.00 0.00 0.00 0.00 0.00 0.00 0.01 0.01 0.02
0.02 0.01 0.01 0.02 0.01 0.01 0.01 0.02 0.02 0.02 0.04 0.05 0.05 0.04 0.08 0.08 0.06 0.11 0.13 0.14 0.15 0.18 0.17 0.15 0.11 0.09 0.09 0.09 0.07 0.06 0.03 0.01 0.01 0.00 0.00 0.00 0.00 0.00 0.00 0.00 0.00 0.01 0.00 0.01 0.01 0.01 0.01 0.01 0.01 0.01 0.01 0.01 0.01 0.02
0.02 0.01 0.02 0.01 0.01 0.01 0.02 0.02 0.03 0.06 0.06 0.05 0.07 0.03 0.04 0.06 0.10 0.13 0.16 0.18 0.13 0.09 0.06 0.04 0.04 0.03 0.03 0.03 0.04 0.03 0.02 0.00 0.00 0.00 0.00 0.01 0.00 0.00 0.00 0.01 0.00 0.00 0.00 0.01 0.00 0.01 0.01 0.02 0.02 0.02 0.01 0.01 0.01 0.01
0.02 0.01 0.01 0.00 0.01 0.02 0.04 0.05 0.06 0.05 0.05 0.04 0.05 0.05 0.05 0.07 0.13 0.15 0.16 0.16 0.13 0.09 0.06 0.05 0.08 0.05 0.03 0.01 0.00 0.00 0.00 0.00 0.00 0.00 0.00 0.01 0.02 0.01 0.00 0.01 0.01 0.01 0.01 0.00 0.00 0.00 0.01 0.03 0.03 0.01 0.01 0.01 0.01 0.03
0.01 0.01 0.01 0.00 0.01 0.04 0.06 0.04 0.07 0.05 0.01 0.02 0.02 0.03 0.04 0.09 0.15 0.13 0.10 0.08 0.06 0.06 0.05 0.05 0.04 0.02 0.02 0.01 0.01 0.01 0.01 0.00 0.00 0.00 0.00 0.00 0.00 0.01 0.01 0.02 0.01 0.01 0.01 0.01 0.01 0.00 0.00 0.00 0.00 0.00 0.01 0.01 0.02 0.02
0.00 0.01 0.01 0.01 0.04 0.06 0.06 0.03 0.05 0.05 0.04 0.02 0.03 0.03 0.04 0.07 0.08 0.05 0.05 0.08 0.04 0.04 0.03 0.01 0.00 0.00 0.00 0.00 0.00 0.00 0.01 0.01 0.01 0.01 0.00 0.01 0.01 0.01 0.01 0.01 0.01 0.01 0.01 0.01 0.01 0.01 0.01 0.01 0.01 0.01 0.01 0.01 0.01 0.01
0.00 0.01 0.00 0.01 0.05 0.05 0.04 0.06 0.08 0.11 0.07 0.04 0.04 0.03 0.05 0.05 0.04 0.05 0.04 0.04 0.02 0.01 0.01 0.01 0.01 0.01 0.01 0.00 0.00 0.00 0.00 0.00 0.00 0.00 0.01 0.01 0.01 0.01 0.01 0.01 0.01 0.01 0.02 0.01 0.01 0.01 0.01 0.01 0.01 0.01 0.01 0.01 0.01 0.01
0.01 0.00 0.00 0.01 0.03 0.05 0.03 0.04 0.04 0.04 0.04 0.03 0.04 0.04 0.04 0.04 0.04 0.06 0.05 0.02 0.01 0.01 0.01 0.01 0.01 0.02 0.02 0.00 0.00 0.00 0.00 0.00 0.00 0.00 0.01 0.02 0.01 0.01 0.01 0.01 0.01 0.01 0.01 0.01 0.01 0.01 0.01 0.01 0.01 0.01 0.01 0.01 0.00 0.01